GFSNE_250_rhum_000.txt.gz
RH
49 66 70 66 62 65 71 72 74 80 86 90 78 71 73 72 71 54 34 59 97 100 100 100 100 100 100 100 100 98 80 100 100 97 77 60 62 76
50 58 52 53 59 63 74 75 72 70 72 86 78 71 79 80 84 59 38 70 92 100 100 100 100 100 100 100 97 93 100 96 89 70 65 65 71 80
45 46 50 64 71 70 73 72 71 76 73 85 80 75 74 82 80 62 40 72 77 100 100 100 100 100 100 100 96 100 100 81 78 65 68 69 80 85
40 42 47 69 76 68 70 73 74 75 76 76 82 67 73 82 75 57 49 90 90 100 100 100 100 100 96 86 90 99 95 85 77 81 67 78 90 81
35 36 46 59 60 66 67 74 69 68 66 60 60 60 60 73 56 56 62 94 90 100 100 100 100 100 82 90 93 97 80 91 84 79 74 82 88 77
34 33 36 45 51 54 60 71 65 61 62 57 47 44 60 57 53 60 66 94 95 100 100 100 100 99 80 74 80 95 82 84 79 90 79 79 74 84
32 33 36 40 48 54 50 49 53 53 57 44 51 56 56 37 59 64 98 98 97 100 100 100 100 88 86 87 100 99 81 92 91 84 78 80 92 81
34 37 39 41 43 44 43 45 46 42 40 43 54 49 36 40 49 82 100 100 100 100 100 100 100 100 92 90 100 86 93 86 87 86 80 88 90 70
38 40 41 41 40 36 30 30 31 34 37 44 43 32 29 48 46 93 100 100 100 100 100 100 100 99 91 100 94 95 86 91 92 88 86 87 91 55
29 31 32 31 26 21 22 24 28 29 30 34 28 23 40 43 100 100 100 100 100 100 100 100 100 85 100 100 100 86 98 100 99 84 91 93 64 46
15 16 16 18 21 24 24 22 24 18 22 23 21 34 36 30 78 100 100 100 100 100 100 100 100 100 100 100 98 99 100 100 88 89 85 69 48 37
14 15 15 11 11 14 16 18 14 19 20 22 27 34 21 50 98 100 100 100 100 100 100 100 100 100 100 100 98 100 100 79 84 87 71 55 35 33
12 11 9 11 12 15 15 14 15 21 24 35 31 20 28 76 100 100 100 100 100 100 100 100 100 100 100 100 100 95 82 90 88 66 60 35 32 34
8 9 11 11 11 13 14 16 17 25 32 28 19 22 37 99 100 100 100 100 100 100 100 100 99 100 100 100 95 93 71 82 68 48 36 32 30 28
9 10 11 12 13 13 15 17 20 25 27 20 19 25 70 100 100 100 100 100 100 100 100 100 100 100 100 100 95 69 85 55 44 35 29 27 26 22
10 10 11 9 10 12 16 18 23 29 18 17 20 42 100 100 100 100 100 100 99 99 100 100 100 100 100 84 80 81 53 43 35 31 29 26 22 17
9 11 12 12 14 17 19 21 27 16 17 21 27 65 100 100 100 100 100 100 100 100 100 100 99 97 83 87 87 60 40 32 33 32 26 18 16 13
8 11 13 16 17 23 26 24 15 17 21 26 30 88 100 100 100 100 100 100 100 100 100 100 87 85 86 76 56 47 37 34 28 26 24 19 11 11
9 11 15 17 23 26 20 15 16 21 25 27 48 96 100 100 100 100 100 100 100 100 93 82 98 86 69 56 45 41 31 27 24 19 14 10 10 9
9 10 11 14 20 17 15 16 19 23 23 45 58 98 100 98 81 83 100 100 98 86 92 98 79 69 60 50 42 30 30 26 20 14 9 7 8 8
9 9 10 13 14 13 16 19 23 25 30 74 100 100 100 100 68 98 95 97 100 100 87 66 64 58 54 42 32 26 23 21 16 10 8 6 5 6
10 10 10 10 12 18 21 24 27 48 56 82 94 99 97 82 100 94 100 100 97 89 62 62 66 54 42 32 28 23 18 11 8 9 7 4 4 4
10 11 11 14 21 24 28 32 57 82 79 96 100 100 90 100 100 100 100 96 89 72 66 76 60 40 35 28 21 18 12 10 8 5 5 4 4 4

GFSNE_250_rhum_003.txt.gz
RH
71 67 55 67 78 68 82 79 42 41 48 54 59 70 63 82 96 88 81 75 74 70 70 67 77 65 89 99 100 99 98 83 92 100 81 77 61 78
64 54 50 69 78 84 86 73 53 38 34 42 46 46 44 67 84 86 76 70 74 70 73 68 73 73 93 98 100 100 95 95 90 83 71 61 67 64
41 44 53 53 82 70 80 57 39 38 33 33 41 41 46 62 76 72 62 68 74 66 66 71 68 76 97 94 94 99 100 96 80 81 60 63 82 75
25 34 31 32 33 38 37 44 48 44 35 34 39 42 50 60 70 61 61 61 64 66 64 68 64 88 100 100 96 100 100 97 88 58 72 81 84 85
23 20 23 25 27 26 28 31 36 41 42 44 48 55 54 58 61 64 62 61 60 65 66 57 73 92 95 100 100 100 100 97 85 80 93 90 90 74
21 21 20 19 19 23 26 29 33 36 42 46 52 61 68 62 57 59 48 55 48 62 72 67 98 90 98 100 100 93 100 97 75 100 88 97 89 72
21 16 16 16 17 19 22 24 28 35 42 44 53 54 47 41 57 58 50 47 48 76 73 83 100 100 100 100 100 98 88 77 100 90 94 89 78 74
14 14 15 16 16 16 15 13 14 16 19 23 26 25 30 26 34 35 41 52 47 78 93 100 100 100 100 100 99 92 78 100 96 100 100 84 82 89
13 12 14 17 17 15 15 16 18 19 19 18 19 25 23 22 26 32 43 46 51 100 100 100 100 100 100 100 100 100 100 97 100 100 86 92 92 100
12 10 14 13 12 11 11 13 16 16 16 16 16 16 13 16 18 28 33 34 46 83 96 100 100 100 100 100 100 98 97 100 100 91 93 99 99 94
8 8 8 9 10 11 11 12 13 13 13 12 11 10 14 21 25 26 29 31 49 91 88 100 100 100 100 100 88 100 100 100 98 97 99 100 88 100
7 8 9 8 8 8 8 8 8 9 9 10 12 14 16 19 24 27 31 49 64 55 99 100 100 100 100 100 100 100 100 99 99 100 91 91 99 90
6 6 6 6 6 7 8 7 8 11 11 12 14 17 20 22 29 42 52 44 42 99 100 100 100 100 100 100 97 100 100 97 95 87 98 84 78 68
7 8 8 7 7 8 8 8 10 13 15 16 18 20 20 25 42 44 28 39 94 100 100 100 100 100 100 100 100 98 90 91 98 93 88 69 67 49
8 8 8 8 9 10 9 10 11 12 14 15 18 22 26 39 31 22 58 95 100 100 100 100 100 100 100 100 100 100 95 94 86 83 71 66 48 42
7 7 8 10 11 10 10 12 13 14 15 16 21 27 30 20 17 51 88 100 100 100 100 99 100 100 100 100 98 88 95 85 78 66 65 42 38 30
7 8 8 8 9 9 10 12 16 17 19 22 15 12 16 14 44 84 100 100 100 100 100 100 100 100 100 98 100 87 84 68 64 55 43 34 28 21
6 6 7 8 8 9 11 13 19 21 22 14 16 20 14 30 87 100 92 100 100 94 100 100 100 89 92 96 85 75 82 56 44 35 32 25 16 13
6 6 6 6 7 8 11 19 24 28 24 28 26 16 23 41 90 100 80 82 98 100 96 96 90 98 86 76 80 79 52 44 34 29 23 18 11 9
5 6 7 7 7 9 12 21 29 33 32 22 18 20 31 52 97 99 91 89 87 97 100 93 93 82 74 73 57 49 39 31 25 21 14 8 8 7
5 6 7 8 8 9 13 20 26 30 21 16 21 28 56 89 100 87 49 85 99 92 84 86 83 79 76 58 43 36 30 27 24 16 8 7 5 5
6 6 7 9 10 11 14 18 22 18 17 18 24 42 58 61 47 53 83 98 97 94 95 83 82 64 45 39 36 31 23 16 12 10 7 5 4 4
8 8 9 11 12 12 14 17 18 17 16 22 35 53 66 45 93 100 100 87 98 100 96 80 61 48 39 36 31 24 12 10 7 5 4 4 4 5

GFSNE_250_rhum_009.txt.gz
RH
43 43 39 39 49 64 68 57 47 39 36 36 34 32 31 33 32 32 32 35 35 37 43 43 44 48 55 64 62 62 59 68 68 78 89 88 79 70
58 54 47 40 40 38 36 35 34 28 21 24 25 30 27 27 27 26 28 29 29 28 31 36 37 38 41 48 55 58 54 56 73 86 94 90 78 72
40 35 30 24 21 22 21 19 19 18 17 19 19 20 21 23 25 26 29 32 29 30 30 33 38 39 35 40 47 50 55 68 89 89 83 93 73 80
23 20 19 16 16 15 15 15 15 15 15 11 15 17 19 19 21 25 26 29 33 35 42 36 32 33 39 48 49 50 64 76 89 92 92 90 76 83
19 18 16 16 15 14 15 14 10 9 12 10 10 14 16 18 19 19 22 26 30 35 36 40 40 40 43 48 48 59 63 71 91 94 97 77 77 86
15 15 14 12 8 10 11 10 10 9 9 8 7 7 10 12 13 14 15 19 24 26 27 32 34 34 36 56 56 54 66 71 96 100 75 77 84 90
10 8 8 8 7 7 8 9 7 6 6 6 6 8 9 10 11 13 13 16 18 22 22 24 26 27 33 52 58 67 67 70 86 100 86 93 93 96
8 8 9 7 7 5 5 4 4 4 5 5 7 8 8 10 10 9 8 12 14 14 13 16 19 25 38 46 46 48 53 60 65 82 98 90 100 100
6 5 5 6 6 5 5 4 5 5 4 5 6 6 6 6 6 6 5 6 7 9 11 15 19 23 25 36 48 49 50 51 72 77 92 100 100 100
4 5 5 5 6 5 6 6 5 6 6 5 6 7 7 7 6 6 6 7 8 10 13 16 18 20 26 35 37 38 45 53 73 97 100 100 100 100
4 4 4 5 5 5 5 6 7 8 8 7 7 8 8 8 7 8 9 8 9 10 11 10 15 20 24 30 31 33 37 53 79 100 100 100 100 100
4 4 5 4 5 5 5 6 6 7 8 8 8 8 9 9 10 10 10 8 9 12 10 10 13 14 15 19 22 27 48 92 100 100 100 100 100 100
3 3 4 4 4 4 4 5 6 6 7 7 7 7 9 9 10 10 9 12 12 13 12 13 15 16 19 25 36 55 88 100 100 100 100 100 100 100
2 3 3 3 3 3 3 4 5 6 6 6 7 7 9 9 11 12 13 14 15 16 16 17 20 25 31 38 42 65 100 100 100 100 100 100 100 100
2 2 2 3 3 3 3 4 5 6 6 7 7 10 11 11 12 13 14 15 16 18 19 21 24 28 30 40 52 82 97 100 100 100 100 100 100 100
2 2 3 3 3 3 3 4 4 5 6 7 9 10 10 10 11 13 15 16 17 20 22 28 33 46 65 86 90 100 100 99 94 99 100 100 100 100
3 3 4 4 4 4 4 4 5 5 6 7 9 10 11 11 12 16 17 18 19 20 26 45 51 52 54 58 69 83 94 97 100 100 100 100 100 100
3 4 4 4 4 4 4 5 5 6 6 7 9 10 11 13 18 19 20 22 23 34 41 30 31 38 59 76 91 97 100 100 100 100 100 100 100 91
4 5 5 5 5 5 5 6 6 7 7 8 9 11 15 21 22 24 25 24 20 16 18 27 42 90 93 100 100 100 100 100 100 95 92 76 83 95
4 5 6 6 6 5 6 7 8 8 9 10 11 18 25 25 19 16 14 19 24 21 30 44 73 93 97 95 93 89 84 79 78 79 80 73 68 62
4 6 7 7 7 6 7 8 8 10 11 12 21 29 29 22 23 22 29 37 46 45 50 71 89 83 77 84 89 79 74 73 71 69 63 52 38 29
4 5 6 8 8 8 8 9 10 12 17 26 32 28 26 24 22 31 45 52 57 68 80 77 76 70 63 66 72 69 61 58 52 40 30 24 21 18
4 4 6 8 9 9 10 12 12 16 25 28 29 27 23 20 44 80 72 85 89 77 65 60 72 73 63 59 57 57 46 33 24 18 14 14 11 7

GFSNE_250_rhum_012.txt.gz
RH
65 67 65 53 40 32 30 26 20 14 15 19 18 16 17 19 23 25 27 28 32 32 32 29 29 30 34 37 35 31 32 34 35 38 42 49 59 67
42 39 34 28 26 22 21 21 19 14 8 11 13 12 12 15 17 19 20 21 23 26 28 30 30 30 32 36 41 39 38 40 40 40 41 49 52 66
33 28 26 23 24 24 24 22 20 18 10 9 8 8 7 8 10 10 12 13 17 22 22 23 25 23 25 28 34 40 41 39 44 46 43 51 56 60
29 27 24 19 18 21 19 16 10 9 7 6 7 8 6 7 6 7 9 10 11 14 15 16 18 19 20 26 30 36 42 43 44 43 44 59 58 60
21 18 14 14 11 10 8 8 8 7 7 6 6 7 8 8 7 7 7 8 9 10 13 14 14 17 19 19 21 29 36 40 45 51 63 65 61 73
13 10 8 7 7 7 7 6 5 5 5 4 4 5 6 8 6 5 5 6 6 8 8 10 11 13 14 17 21 22 24 31 43 47 60 57 62 82
8 8 7 6 6 5 4 4 3 3 4 4 4 4 6 6 6 5 4 5 5 6 7 9 12 13 16 18 18 20 26 31 35 35 46 61 76 84
7 6 5 4 4 3 3 3 3 3 3 3 4 5 5 5 5 5 4 4 6 5 6 9 9 18 22 21 23 25 25 25 25 29 33 46 64 86
4 3 3 3 3 3 3 3 3 4 3 3 4 5 5 5 5 6 6 6 7 7 6 7 7 8 11 11 13 15 20 21 22 25 41 55 76 88
2 2 2 3 3 3 3 4 4 4 3 3 3 4 5 6 6 6 7 8 9 9 7 9 7 7 7 8 8 10 17 23 34 41 49 59 76 87
3 3 2 2 2 2 2 3 4 4 3 3 4 4 4 5 5 6 8 10 11 10 8 10 9 7 8 8 9 11 18 26 29 37 44 54 65 74
3 2 2 2 2 2 2 2 2 3 3 3 3 4 5 5 6 6 8 8 10 10 8 11 11 10 9 9 10 12 16 19 25 32 41 48 59 85
2 2 2 2 2 2 2 2 2 2 3 3 3 3 4 6 6 6 7 8 10 10 8 11 10 9 10 10 12 14 16 19 22 27 37 49 81 100
2 2 3 3 2 3 3 3 3 3 3 3 3 3 4 5 5 6 7 10 11 10 10 11 10 13 14 14 15 16 18 21 23 29 39 75 99 100
2 2 2 2 2 2 3 4 4 4 3 3 3 3 4 6 6 7 10 10 12 13 14 15 15 16 18 18 20 22 27 36 45 59 77 86 100 100
2 1 1 1 2 3 3 4 4 4 4 4 4 5 5 6 7 9 9 9 11 14 16 17 19 20 22 23 25 28 32 40 53 82 89 100 100 100
2 2 2 2 2 4 5 5 5 4 4 5 6 6 6 7 9 10 10 12 15 17 17 18 20 22 28 36 47 56 71 82 80 84 94 97 98 99
3 2 2 2 3 5 5 6 5 6 6 6 7 7 8 9 10 10 14 18 18 18 18 19 22 32 50 62 64 66 76 88 85 86 93 97 99 100
4 2 2 3 4 6 7 7 6 7 8 8 9 9 10 10 11 19 23 24 24 28 40 46 43 38 38 41 50 61 64 73 87 91 93 94 96 100
4 3 3 3 5 7 8 7 8 9 10 10 11 12 13 17 22 24 24 23 25 31 30 25 26 27 30 43 60 70 77 77 80 88 94 91 94 98
5 3 3 5 6 8 9 9 10 11 12 14 15 16 21 24 23 15 19 20 22 28 25 24 31 41 55 68 83 80 78 86 92 95 99 100 100 96
5 4 4 5 7 10 10 11 12 13 14 19 22 25 24 24 23 24 24 23 22 23 30 38 42 48 56 59 71 84 88 79 77 78 75 70 65 64
5 4 5 6 11 12 12 13 14 16 18 23 26 26 25 24 22 19 18 23 27 34 43 50 53 56 56 67 74 70 58 55 52 50 48 44 40 36

GFSNE_250_rhum_015.txt.gz
RH
41 38 40 41 38 35 30 24 21 19 19 21 18 21 18 18 17 17 21 20 27 33 26 25 23 17 20 29 30 32 24 37 28 31 34 39 45 36
39 45 37 37 36 31 26 20 18 16 11 12 10 8 8 8 8 9 9 10 11 11 12 12 13 12 12 12 13 16 20 23 26 29 28 41 31 41
39 43 43 34 26 22 19 18 16 11 5 6 5 6 6 6 6 7 7 8 8 10 9 10 10 11 12 12 12 14 15 19 22 34 30 38 31 32
42 45 36 20 18 17 14 11 6 6 5 3 4 4 4 5 5 5 5 6 6 7 7 7 8 9 11 11 12 13 14 18 21 25 34 40 39 26
42 25 19 17 14 10 6 5 5 4 3 2 2 4 3 4 4 4 4 4 4 4 5 5 6 6 8 9 9 12 14 16 20 23 25 30 36 34
23 16 13 9 6 5 5 4 3 3 3 2 2 2 3 4 3 3 3 4 4 4 4 4 5 6 6 6 7 8 11 10 12 19 22 31 41 68
15 11 8 5 5 4 3 3 3 3 3 2 2 2 3 3 4 3 4 4 4 4 4 5 4 5 6 6 6 6 7 8 10 13 15 20 28 50
8 6 5 5 4 3 3 3 3 2 2 2 2 2 2 2 3 3 3 4 5 5 5 5 4 5 6 6 6 5 6 7 11 16 20 20 25 33
5 5 5 3 3 3 3 3 2 2 1 1 2 2 2 2 2 3 4 4 4 6 5 7 5 6 6 7 6 6 6 8 10 18 26 30 34 39
5 4 3 2 3 3 3 2 2 2 2 2 2 2 2 2 2 3 4 4 5 5 6 7 5 7 8 9 8 8 8 9 9 18 28 33 38 39
5 3 2 3 3 2 2 2 2 2 2 2 2 2 3 2 3 3 3 4 5 4 6 7 5 8 9 9 9 9 9 9 9 10 10 14 18 26
4 2 2 3 3 2 2 2 2 2 2 2 3 3 3 3 3 3 3 4 4 4 5 7 7 9 10 11 12 11 11 11 10 10 10 11 18 27
3 3 3 3 3 2 2 2 2 1 2 2 3 4 4 4 3 3 3 4 4 4 7 7 8 8 11 11 12 14 14 13 12 12 13 17 26 39
3 3 3 3 2 2 2 2 2 2 2 3 4 4 4 4 4 4 4 5 5 6 8 7 8 11 11 11 12 12 11 11 11 12 14 18 28 35
3 2 3 2 2 2 2 2 2 3 4 5 5 5 5 4 4 5 6 6 6 7 9 11 12 12 12 12 14 15 15 16 16 17 18 20 26 34
3 3 2 2 3 4 2 2 3 5 6 6 5 5 5 6 6 6 6 8 9 9 9 10 12 14 16 17 18 18 18 18 18 21 25 25 30 37
3 2 3 4 4 3 2 3 5 6 7 6 6 6 6 7 7 8 9 9 9 9 10 13 16 17 18 19 20 22 23 25 26 29 32 35 50 74
2 3 4 4 5 3 3 5 7 7 7 7 8 8 8 8 9 10 10 11 11 12 15 17 18 19 21 21 22 25 27 31 40 49 48 63 83 90
4 4 4 4 4 3 4 6 8 8 8 9 10 10 10 10 10 11 12 13 17 19 19 19 20 21 25 31 38 47 51 59 72 76 81 85 86 94
4 3 4 5 4 4 6 8 9 9 9 10 11 11 12 13 14 17 21 23 24 23 25 27 35 44 41 39 40 40 51 60 74 89 92 91 89 88
3 4 5 5 4 5 8 10 10 10 11 12 12 14 17 20 21 21 23 22 23 24 26 30 30 29 28 31 37 45 67 71 73 71 73 82 88 84
3 5 6 5 5 8 11 11 11 12 13 14 16 19 22 20 23 20 19 22 24 27 28 32 33 31 29 30 41 52 61 63 63 68 72 78 87 94
5 6 6 5 8 11 12 12 12 13 16 19 22 24 24 24 25 24 22 21 24 25 30 41 54 53 53 51 52 55 56 60 66 69 75 84 89 91

GFSNE_250_rhum_018.txt.gz
RH
50 50 48 42 36 39 39 35 28 19 20 30 23 25 17 13 12 12 10 10 9 9 9 9 9 9 10 10 12 13 18 22 44 77 47 69 78 67
53 47 39 36 36 37 34 34 32 21 15 19 17 13 8 6 5 6 6 6 6 6 5 5 5 6 6 7 8 10 11 13 18 28 32 28 28 45
42 39 38 36 33 34 38 33 26 23 18 14 5 5 4 4 4 3 3 3 4 4 4 3 4 4 5 5 6 7 9 10 13 16 17 23 26 27
38 37 37 34 33 34 30 27 23 15 9 4 4 4 4 3 2 3 3 3 3 3 3 3 3 3 4 4 4 5 7 8 10 12 14 16 22 47
38 35 32 33 32 30 29 20 12 6 4 3 3 2 2 2 2 2 3 3 3 3 3 3 3 3 3 4 4 4 5 7 8 9 10 13 17 20
37 37 36 35 32 23 19 9 5 4 4 3 2 2 2 3 2 2 2 2 3 3 3 3 3 3 3 4 4 4 4 5 6 8 9 14 17 18
43 41 38 26 16 11 7 4 4 4 3 2 2 2 2 2 2 2 1 2 2 2 2 2 2 2 3 4 4 4 4 5 6 9 10 13 17 20
40 31 18 12 8 5 4 5 4 3 2 2 2 2 2 2 2 2 2 2 2 2 1 2 2 3 3 4 4 5 5 6 6 7 8 10 12 20
23 15 9 6 4 4 5 5 4 3 2 2 2 2 2 1 1 2 2 2 2 2 2 2 2 3 3 4 5 6 6 6 7 7 7 8 10 15
13 8 6 4 4 5 4 4 4 3 2 2 1 2 1 1 1 1 2 3 2 2 2 2 2 3 4 5 5 6 6 7 8 8 8 8 8 11
8 5 4 4 4 3 4 4 4 3 2 2 2 2 2 2 2 2 3 3 2 2 2 3 3 4 4 4 6 7 7 9 10 10 9 9 11 14
6 4 4 4 3 3 4 4 3 2 2 3 2 2 2 3 3 3 3 3 3 3 3 3 3 4 5 6 6 7 10 11 12 12 11 10 10 13
5 5 4 4 4 4 3 3 2 3 4 3 2 2 3 4 4 4 4 4 3 4 4 4 4 5 5 6 6 8 10 11 13 12 11 11 11 11
5 4 4 4 4 3 2 2 3 4 3 2 3 4 5 5 5 5 5 4 4 5 4 5 5 5 5 6 7 9 11 13 15 14 12 12 11 10
4 4 4 4 3 2 3 3 4 4 3 4 5 5 5 5 5 5 5 5 5 5 5 6 6 6 7 8 11 11 11 12 13 14 14 12 11 11
5 5 4 3 3 3 3 3 4 4 4 6 6 6 6 6 6 6 6 6 6 7 7 7 8 9 11 13 13 12 11 11 11 11 12 12 13 13
5 4 3 3 3 3 3 4 4 4 6 7 6 7 7 7 7 8 8 8 9 10 10 9 9 9 11 13 13 14 15 15 16 15 14 14 14 15
4 3 3 4 3 3 4 4 4 6 8 8 8 8 8 9 9 8 9 10 10 10 11 11 12 14 15 16 17 19 19 19 19 19 20 21 19 19
4 4 4 3 3 4 5 4 6 8 9 9 10 10 11 10 10 10 10 11 12 13 14 16 17 18 18 18 20 21 22 22 25 25 24 26 29 29
4 4 3 3 5 5 5 6 9 10 10 11 12 12 12 13 13 14 16 19 22 23 22 20 20 20 21 23 24 23 27 28 30 34 36 36 39 43
4 3 3 5 6 5 7 10 11 12 12 13 15 16 18 20 20 20 18 21 23 27 36 41 39 45 44 41 40 42 49 54 59 60 62 66 66 68
3 3 6 6 6 8 11 12 13 13 14 16 19 22 24 24 25 23 24 26 26 26 26 31 37 46 34 29 29 34 31 51 56 61 62 64 72 80
4 6 7 7 9 12 14 14 14 15 17 21 24 26 27 27 26 27 28 29 35 42 39 32 37 42 51 54 44 35 29 36 50 55 57 57 62 67

GFSNE_250_rhum_021.txt.gz
RH
68 63 54 51 57 54 46 40 37 32 35 38 35 35 30 24 23 24 24 23 17 14 11 7 5 5 5 5 6 6 6 8 9 12 17 13 20 37
60 54 63 58 45 44 43 38 34 31 24 30 29 28 25 21 12 7 6 5 4 4 4 4 4 3 3 4 4 4 5 6 7 9 12 13 12 20
55 56 43 41 42 40 37 35 32 29 20 19 21 23 13 6 6 4 3 3 3 3 3 3 3 2 2 2 3 3 3 4 5 6 7 11 11 19
43 40 41 42 42 36 32 28 23 20 20 16 12 6 5 4 4 4 3 2 2 2 2 2 2 2 2 2 2 2 3 3 4 5 6 7 9 12
40 39 40 38 31 26 21 18 19 19 14 6 4 4 4 4 2 2 2 2 2 2 2 2 2 2 2 2 2 2 3 3 4 4 5 6 8 10
39 42 34 30 26 20 21 20 16 8 6 4 3 3 3 2 2 2 2 2 2 2 1 1 2 2 2 2 2 2 3 3 4 4 5 6 7 9
41 36 32 26 24 20 14 9 6 5 4 4 3 2 2 2 2 2 2 2 2 1 1 2 2 2 2 2 2 2 2 3 4 5 5 6 7 8
37 30 27 23 19 10 6 6 5 4 4 2 2 2 3 2 2 2 1 1 2 1 1 1 1 2 2 2 2 2 3 4 5 6 5 6 6 7
30 25 20 14 6 5 6 5 6 5 2 2 2 3 3 2 1 1 1 2 1 1 1 1 2 2 2 2 2 2 3 4 5 5 5 5 6 7
22 14 7 5 5 5 5 6 6 4 3 2 2 2 2 2 2 2 2 1 1 2 2 2 2 3 2 2 2 3 4 5 5 6 6 6 7 8
10 6 5 4 4 5 5 4 4 4 3 3 2 2 3 3 3 2 2 2 3 3 3 3 3 3 3 3 3 4 5 5 6 6 7 7 7 8
7 6 4 4 5 4 4 4 4 4 3 3 2 3 3 3 2 3 4 4 4 4 4 3 3 3 3 3 4 5 5 6 6 7 8 8 8 9
6 5 5 5 4 4 3 3 3 3 3 3 3 3 3 2 4 4 5 5 4 4 4 4 3 3 3 4 4 5 6 6 6 7 8 8 8 8
5 5 5 4 4 4 3 3 3 3 3 3 4 4 3 4 5 5 5 5 5 4 4 4 4 4 4 4 5 6 6 6 6 7 9 10 10 10
5 4 4 4 4 4 3 3 3 3 3 4 4 4 5 5 5 6 6 6 6 5 5 5 5 6 6 6 6 6 6 6 7 9 10 11 11 11
4 4 4 4 4 4 4 3 3 4 5 4 5 6 6 6 7 7 7 7 7 7 6 6 7 7 7 6 7 8 8 8 9 10 11 13 12 11
4 4 4 4 4 4 3 3 4 5 5 6 7 8 8 8 9 9 9 9 9 9 9 9 9 10 10 10 10 10 10 10 11 11 12 14 14 12
4 4 4 4 4 3 3 5 6 6 7 8 8 8 9 11 11 11 11 11 11 11 11 10 10 10 10 11 13 14 13 12 12 12 13 15 15 14
4 4 4 4 3 3 5 6 6 8 9 10 10 11 12 12 13 13 13 13 12 12 13 13 14 14 14 14 16 16 16 15 14 14 12 12 13 15
4 4 4 3 3 5 6 7 10 10 11 12 13 14 17 18 19 18 16 18 20 22 20 18 18 18 18 18 19 20 20 19 18 17 16 15 13 12
4 3 3 4 6 7 9 10 11 12 13 15 17 18 20 21 22 21 19 19 21 22 27 36 29 24 22 21 22 22 22 22 22 22 20 19 20 16
4 4 4 7 8 10 10 11 12 13 17 19 20 19 19 20 21 22 23 26 27 29 27 29 40 44 43 40 41 40 35 31 28 27 28 29 26 26
4 5 7 8 11 11 11 12 13 14 14 14 16 17 17 18 19 20 21 19 19 26 28 28 30 43 52 38 29 45 38 42 44 43 47 48 46 44

GFSNE_250_rhum_024.txt.gz
RH
97 100 94 79 79 83 61 49 40 29 30 36 34 39 37 33 30 26 24 24 25 23 20 14 9 7 6 5 5 5 5 5 6 7 8 11 15 19
80 74 90 78 59 55 48 37 28 25 25 35 35 34 30 24 23 22 20 14 8 5 5 4 4 4 3 3 3 3 3 3 3 4 5 6 6 7
93 75 61 58 53 44 32 27 28 29 26 24 22 23 24 20 12 6 5 4 4 3 3 3 3 3 3 3 3 3 3 3 3 3 4 5 5 6
60 59 57 48 32 26 25 26 26 24 20 17 18 10 6 5 5 4 3 3 3 3 3 2 2 2 2 2 2 2 2 2 2 2 3 3 4 4
59 53 40 30 26 26 26 24 21 17 14 7 6 5 5 4 3 4 4 4 3 2 2 2 2 2 2 2 2 2 2 2 2 2 3 4 4 4
46 35 31 27 24 22 20 15 11 7 7 6 5 4 4 4 4 3 3 3 2 2 2 2 2 2 2 2 2 2 2 2 1 2 2 4 4 4
39 33 28 23 20 17 12 7 6 5 5 4 4 4 4 4 3 2 2 2 2 2 2 2 1 1 2 1 1 1 1 1 1 2 2 3 3 4
31 25 22 18 15 10 6 6 6 5 4 3 3 3 3 2 2 2 2 2 2 1 2 2 2 2 1 1 1 1 1 1 2 2 2 3 4 4
23 24 19 12 7 6 5 5 5 4 3 3 3 2 2 2 2 2 2 2 2 2 2 2 1 1 2 1 1 1 1 1 2 2 2 3 4 4
25 16 9 6 6 5 4 5 4 4 4 3 2 2 2 2 2 2 2 2 2 2 2 2 2 2 2 2 2 2 2 2 2 2 2 3 3 4
15 8 7 6 5 4 4 4 4 3 3 3 2 2 2 2 2 2 2 2 2 2 3 4 4 4 3 3 3 3 3 3 3 2 3 3 4 5
8 8 6 5 5 4 4 3 3 3 3 3 3 3 2 2 2 3 3 3 4 4 4 5 5 5 4 4 4 3 3 3 3 3 3 3 4 5
7 6 5 5 4 4 3 3 3 3 3 3 3 2 3 3 3 3 4 5 4 4 5 5 5 5 5 4 3 3 3 3 3 3 3 3 4 4
4 4 4 4 4 4 4 3 3 3 3 3 3 3 3 3 4 5 5 6 6 6 6 5 5 5 4 4 4 4 4 4 4 4 4 5 5 5
4 4 3 4 4 3 3 3 3 3 2 3 4 4 4 6 6 6 6 7 7 7 7 6 6 5 5 4 5 5 5 5 5 6 6 6 6 6
4 4 4 4 4 3 3 3 3 3 4 4 5 6 7 8 8 8 8 8 8 8 8 8 7 7 7 7 6 6 7 7 7 7 7 8 8 8
4 4 4 4 3 3 3 3 3 4 5 6 7 8 9 9 10 10 10 9 9 9 10 10 9 9 9 8 8 8 7 8 8 8 8 8 8 9
4 4 4 3 3 3 3 3 4 5 7 9 10 11 11 11 12 12 12 11 10 9 10 10 10 10 10 11 12 12 9 8 9 9 10 11 11 12
4 3 3 3 3 3 4 5 6 8 10 12 12 12 13 14 15 16 14 13 15 16 13 13 13 11 11 11 13 13 14 14 13 13 14 14 14 16
3 3 3 4 3 5 6 7 9 11 12 12 13 14 17 19 18 19 16 18 23 24 21 17 17 18 18 18 18 17 16 16 14 13 14 16 17 18
3 4 4 4 5 6 8 10 12 12 12 14 16 18 20 21 21 21 21 22 20 20 22 25 20 20 20 20 19 20 20 19 19 17 14 14 16 16
4 5 5 6 7 9 11 12 12 13 13 14 14 16 18 20 22 24 23 23 23 24 24 26 31 30 26 26 24 23 22 24 23 21 20 16 14 15
5 6 6 9 10 12 13 13 14 14 16 17 17 17 17 17 17 17 18 20 20 19 24 28 26 29 29 33 33 35 26 23 28 26 23 22 18 16

GFSNE_250_rhum_027.txt.gz
RH
23 24 34 52 62 61 58 46 31 29 37 49 43 45 38 30 26 21 20 21 22 22 23 24 24 20 17 14 12 11 10 10 10 10 10 11 14 16
40 61 74 66 60 49 42 38 32 27 24 40 40 38 36 28 22 18 18 19 20 18 14 9 6 4 4 4 4 4 4 4 3 4 4 4 4 5
66 69 65 50 49 46 41 33 30 30 28 33 32 30 28 24 21 16 10 6 5 4 4 4 4 3 3 3 3 3 3 3 3 3 3 4 4 4
67 59 57 51 46 34 32 33 31 31 24 21 22 19 13 8 6 5 4 4 3 3 3 3 2 3 3 3 3 4 3 3 3 2 2 2 3 3
56 52 44 34 35 34 31 28 26 21 18 12 8 5 5 5 4 4 3 3 2 2 2 2 3 2 2 2 2 2 2 2 2 2 2 2 2 2
46 34 36 36 33 27 22 18 15 12 7 5 4 4 4 4 4 3 3 3 2 2 2 2 2 2 2 2 2 2 2 2 2 2 2 2 2 2
36 38 36 29 21 19 15 13 7 5 5 4 3 4 4 4 3 3 2 2 2 2 2 2 2 2 2 2 2 2 1 1 1 1 1 2 2 2
36 30 24 20 18 15 8 6 5 4 3 3 3 4 3 3 3 2 2 2 2 2 2 2 2 2 2 2 2 2 2 2 2 2 1 1 2 2
26 22 21 16 9 6 6 5 4 4 3 3 3 3 3 3 3 2 2 2 2 2 2 2 2 2 2 2 2 2 2 1 1 1 1 1 1 2
20 16 13 7 6 5 4 4 4 4 3 3 2 3 3 3 2 2 2 2 2 2 2 2 3 2 2 2 2 2 2 2 1 1 1 1 1 1
16 10 6 6 5 4 4 4 3 3 3 3 3 3 3 3 3 2 2 2 3 3 3 3 3 3 3 3 3 3 3 2 2 2 1 1 1 1
8 6 6 5 4 4 4 3 3 3 3 3 3 3 3 2 2 3 3 3 3 4 4 3 3 4 4 4 4 4 3 3 3 2 2 2 2 2
7 6 5 4 4 4 3 3 3 3 3 2 2 2 2 3 3 4 4 5 5 5 5 4 4 4 4 5 4 4 4 3 3 3 3 3 3 2
5 4 4 4 4 3 3 3 3 2 2 2 2 3 4 4 4 5 6 6 6 6 6 5 5 5 5 5 4 4 4 4 3 3 3 3 2 3
4 4 4 4 4 3 3 2 2 2 3 3 4 4 4 5 6 7 7 7 8 8 8 7 7 6 5 5 5 4 4 4 4 4 3 3 3 3
5 4 4 4 4 3 2 2 3 3 4 5 5 6 6 8 8 8 8 8 8 8 9 9 8 7 7 7 6 5 4 5 5 5 5 4 5 4
4 4 4 4 3 3 3 3 4 5 5 6 8 8 9 10 11 11 11 10 9 8 9 10 10 10 8 7 7 8 6 6 6 6 6 6 6 6
4 4 3 3 3 4 4 5 5 6 8 10 11 11 11 12 13 13 13 10 10 10 9 11 11 10 11 10 8 8 8 8 8 8 8 7 7 7
4 3 3 3 4 4 5 6 8 9 11 11 12 13 15 16 17 17 16 13 15 17 15 14 13 11 11 12 12 10 9 9 9 10 10 9 9 9
3 3 4 4 4 5 7 9 11 12 12 12 13 14 17 19 19 21 19 18 20 23 21 18 16 16 16 14 14 14 14 11 11 11 10 10 11 12
3 4 5 5 6 8 10 12 13 13 13 13 14 14 15 16 19 20 23 22 23 23 20 22 20 18 18 18 18 17 15 15 15 15 14 12 12 13
4 6 5 7 9 11 13 14 16 18 20 21 21 20 20 19 18 18 20 24 24 24 25 36 29 24 20 20 21 21 20 19 17 16 16 17 16 17
6 6 9 10 12 14 17 18 21 24 25 26 26 23 19 20 23 22 20 19 20 22 21 30 35 40 27 24 21 23 22 22 21 20 17 17 18 19

GFSNE_250_rhum_030.txt.gz
RH
18 18 19 24 27 26 27 27 26 28 41 48 39 34 26 26 27 26 28 26 25 23 20 20 20 20 19 18 16 15 14 15 17 18 18 18 18 19
21 27 32 33 37 36 34 36 35 26 20 31 34 34 34 29 25 21 19 18 17 15 13 11 10 8 7 7 6 6 6 6 6 7 8 11 13 15
36 38 40 36 36 37 37 32 26 23 22 32 36 36 32 24 19 14 11 8 6 5 5 4 3 4 4 4 4 4 4 4 4 4 4 4 4 5
38 38 37 39 40 32 28 29 31 30 23 18 22 19 15 12 8 5 5 5 4 4 3 3 3 3 3 3 3 3 3 3 3 3 3 3 3 3
37 40 41 34 32 33 33 30 27 23 18 14 9 7 6 6 5 5 4 3 3 2 2 2 2 2 2 2 2 2 2 2 3 3 3 3 3 3
42 38 34 34 34 30 26 22 17 13 8 5 4 4 4 4 3 3 3 3 2 2 2 2 2 2 2 2 2 2 2 2 2 2 2 2 2 2
42 39 39 35 26 21 18 13 7 5 4 4 3 3 3 3 3 3 3 3 2 2 3 2 2 2 2 2 2 2 2 2 2 2 2 2 2 2
45 42 32 26 20 16 9 6 5 4 2 2 2 3 3 3 3 3 3 3 2 2 3 2 2 2 2 2 2 2 2 2 2 2 2 2 2 2
35 30 25 17 10 6 6 5 4 3 2 2 3 2 3 2 2 2 2 2 2 2 3 2 2 2 2 2 2 2 2 2 2 2 2 2 2 2
33 24 12 7 6 5 4 4 3 3 3 3 3 3 3 2 2 2 2 2 2 2 2 2 3 2 2 3 2 2 2 2 2 2 1 1 1 2
23 11 6 6 5 4 4 4 4 3 3 3 3 3 2 2 2 2 2 2 2 3 3 3 3 3 4 4 4 4 3 3 3 2 2 2 1 1
12 8 7 6 5 4 4 4 3 3 3 3 2 2 2 2 2 3 3 3 3 4 4 4 5 4 5 4 4 4 4 4 3 3 3 2 2 1
9 7 6 5 4 4 4 4 3 3 2 2 2 2 2 3 4 4 5 5 5 6 6 5 6 5 5 4 4 4 4 4 4 3 3 2 2 2
8 6 5 5 5 4 4 3 3 2 3 3 3 4 4 5 5 6 6 7 7 6 6 7 6 6 6 5 4 4 4 4 3 3 3 3 3 2
6 5 5 5 4 4 3 3 3 4 4 4 5 5 6 7 7 8 8 8 8 8 8 7 8 7 6 6 4 4 4 4 3 3 3 3 3 3
5 6 5 5 4 3 3 4 4 4 6 6 7 8 8 9 9 10 10 11 11 10 9 9 9 9 7 7 6 5 5 4 4 3 3 3 3 3
6 5 5 4 4 4 4 5 5 6 8 8 8 9 10 12 12 13 13 13 10 9 11 10 9 9 9 8 7 7 5 5 4 4 4 4 4 3
5 5 4 4 4 5 5 6 8 9 10 10 11 11 12 13 16 15 16 17 13 12 16 14 10 10 10 10 8 8 7 6 5 6 6 5 5 5
5 5 4 4 5 6 6 8 10 12 13 13 13 13 13 13 13 16 18 18 18 18 20 19 15 12 10 10 12 9 8 8 7 7 7 7 7 7
5 4 5 6 6 7 10 12 13 15 17 19 20 21 20 18 15 14 16 18 20 20 19 20 19 16 14 13 14 14 10 9 8 8 8 9 8 8
5 5 6 6 8 10 14 15 16 19 24 27 28 24 22 22 23 19 15 16 18 22 22 20 26 19 18 17 17 15 15 12 10 10 9 9 10 9
5 6 7 8 11 15 16 18 21 23 25 26 23 21 22 21 19 19 19 17 16 16 20 21 32 26 20 20 21 19 16 16 14 12 12 11 10 10
7 7 8 12 15 18 19 20 23 26 23 22 18 17 17 17 17 15 16 20 20 17 16 20 26 35 26 21 22 21 18 16 16 17 15 14 15 14

GFSNE_250_rhum_033.txt.gz
RH
21 18 16 15 16 18 20 20 23 29 37 40 34 34 28 27 26 24 22 20 20 20 19 17 15 14 13 13 12 13 13 14 15 16 17 18 21 22
18 17 17 21 26 28 30 34 33 28 24 32 30 24 20 19 16 14 12 12 12 10 10 9 9 9 8 8 8 9 8 8 8 8 8 10 12 15
18 20 28 30 31 37 36 33 29 25 19 22 22 25 22 17 12 9 7 5 4 4 4 4 4 4 4 4 4 5 5 5 5 5 4 4 4 5
27 30 33 39 38 34 32 32 31 26 18 17 18 12 9 6 5 4 4 3 3 3 3 3 3 3 3 3 3 3 3 3 3 3 3 3 3 3
28 36 40 33 34 40 42 31 24 23 20 11 6 5 5 4 4 3 2 2 2 2 2 2 2 2 3 3 2 2 2 3 3 3 2 2 2 3
40 36 33 42 46 36 28 26 21 14 7 5 5 4 3 3 2 2 3 2 2 2 2 2 2 2 2 2 2 2 2 2 2 2 2 2 2 2
34 40 53 46 35 30 24 17 10 6 5 4 4 3 3 3 3 2 2 2 2 2 2 2 2 2 2 3 2 2 2 2 2 2 2 2 2 2
45 57 47 40 32 25 17 9 6 4 3 3 3 3 3 3 2 2 2 2 2 2 2 2 2 2 2 2 2 2 2 2 2 2 2 2 2 2
54 47 42 31 23 13 8 7 6 4 3 3 4 3 3 3 2 2 2 2 2 2 2 1 2 2 2 2 2 2 2 2 2 2 1 1 1 1
52 42 31 20 10 8 7 6 5 4 4 4 3 3 3 2 2 2 2 2 2 2 2 2 2 2 3 3 2 2 2 2 2 2 2 2 2 2
46 32 16 9 9 8 6 5 5 4 4 3 3 2 2 3 3 2 2 3 2 3 3 3 3 2 4 3 4 4 3 3 2 2 2 2 2 2
31 15 9 9 8 6 5 5 5 4 3 3 2 3 3 3 3 4 4 4 4 4 5 5 5 5 5 5 4 4 4 4 4 3 3 3 3 2
14 9 9 8 6 5 5 5 4 3 3 3 3 3 4 4 5 6 7 6 5 7 7 6 6 7 6 6 5 5 5 4 4 4 4 4 3 3
9 9 8 6 6 6 5 4 4 3 4 4 4 4 5 7 8 9 8 9 9 9 8 7 8 8 8 6 6 6 5 5 5 4 4 4 3 3
10 8 6 6 6 5 4 4 4 4 5 4 5 7 8 9 9 10 12 12 12 10 9 9 8 8 8 9 7 7 6 5 5 4 4 3 3 3
9 6 6 6 5 4 4 4 5 6 6 7 9 10 10 10 11 12 14 13 14 13 10 10 10 10 10 9 8 8 6 5 5 5 4 3 3 3
6 6 6 5 4 4 4 6 7 8 9 11 12 12 12 12 11 12 13 17 16 14 16 16 14 11 10 10 10 8 7 6 6 5 4 3 3 3
6 7 6 5 4 5 6 7 9 10 12 13 14 15 14 14 15 15 14 15 18 16 18 20 17 15 12 10 11 8 8 7 6 5 4 3 3 3
7 6 5 4 5 7 7 9 11 13 14 15 16 18 19 20 16 16 17 17 16 18 19 20 20 18 15 11 12 9 8 8 7 6 5 4 4 4
6 5 5 6 7 8 9 13 15 16 16 17 18 18 19 17 19 20 15 20 18 16 19 20 22 20 18 14 14 13 9 9 7 7 7 5 4 4
6 5 6 7 7 10 15 17 18 16 15 14 16 15 15 18 18 17 18 16 21 17 18 19 31 26 20 17 16 15 11 10 9 8 8 7 6 5
5 6 7 7 10 14 16 18 18 14 14 14 12 11 11 12 16 19 18 15 17 19 17 19 26 29 21 20 20 19 15 12 11 10 9 9 8 7
6 8 7 10 14 17 22 20 14 11 9 10 11 11 12 13 15 15 13 12 14 20 18 18 21 33 24 22 22 22 17 16 13 12 10 10 9 8

GFSNE_250_rhum_036.txt.gz
RH
32 28 26 25 23 23 20 17 16 19 32 36 34 31 26 23 22 20 20 20 19 18 17 15 12 10 9 8 8 8 9 10 11 12 13 13 14 15
28 26 25 24 26 20 18 22 27 31 26 28 25 21 18 17 17 15 12 8 7 5 4 4 4 4 4 4 4 4 4 6 7 9 11 12 13 16
27 26 26 27 20 22 27 32 36 27 23 25 22 23 22 20 14 7 5 3 3 3 2 3 3 2 3 3 3 3 3 3 3 4 4 5 6 9
28 29 27 20 26 30 37 34 27 26 19 14 20 22 20 10 6 5 4 3 2 2 2 2 2 2 2 2 2 2 2 2 2 2 2 3 3 4
32 24 21 28 34 36 30 31 29 23 18 16 19 12 8 6 5 4 3 2 2 2 3 2 2 2 2 2 2 2 2 2 2 2 2 2 2 2
22 24 29 34 31 35 37 30 22 18 19 14 8 7 6 5 4 3 3 3 2 2 2 2 2 2 2 2 2 2 2 2 2 2 2 2 2 2
28 29 34 33 41 38 29 22 18 18 10 8 7 6 4 4 4 3 3 3 2 2 2 2 2 2 2 2 2 2 2 2 2 2 2 2 2 2
32 33 38 43 42 35 26 21 18 8 7 6 5 4 4 4 3 3 3 2 2 2 2 2 2 2 2 2 2 2 1 1 1 2 2 2 2 2
34 43 45 44 36 24 22 17 10 6 6 5 5 4 4 4 3 2 2 3 3 3 3 2 2 2 3 3 2 2 2 2 2 2 2 2 2 2
44 45 45 40 28 19 13 10 8 7 5 5 5 4 4 3 3 3 3 2 2 4 4 2 3 2 4 4 3 3 3 3 3 3 2 2 2 2
49 51 42 28 17 11 9 7 6 5 5 5 4 4 3 4 4 4 3 3 2 4 6 5 5 4 5 4 5 5 4 4 4 4 3 3 3 3
50 40 25 14 11 9 7 6 5 6 5 4 3 4 4 5 5 6 7 6 5 6 6 7 8 7 6 6 5 5 6 5 5 4 4 3 3 3
39 23 14 10 9 7 6 5 6 5 4 4 4 4 4 5 6 8 8 9 9 9 10 9 8 8 7 6 7 7 6 5 5 4 4 4 3 3
24 14 9 9 7 5 6 6 5 4 4 4 4 4 6 8 9 10 11 11 11 13 12 12 9 7 8 7 8 8 7 6 5 4 4 4 3 3
16 10 8 7 5 6 6 5 4 4 5 5 5 7 8 10 10 12 13 12 12 12 14 14 11 11 11 8 8 9 8 7 5 4 4 4 3 3
11 9 6 5 6 6 5 4 5 6 5 6 7 9 11 12 13 14 14 15 12 12 14 16 14 15 13 10 10 10 8 7 5 4 4 3 3 2
8 6 5 6 6 6 5 6 6 6 7 10 12 12 12 13 15 15 16 20 18 13 14 17 16 15 15 13 11 12 9 8 7 6 4 4 3 3
5 5 6 6 6 5 5 6 6 9 12 13 13 13 13 12 14 15 15 21 22 17 14 18 18 16 16 16 13 12 9 9 8 6 5 4 3 3
5 7 6 6 5 6 6 7 10 12 13 14 13 11 11 13 15 15 16 20 27 18 16 18 19 19 16 19 15 12 10 10 8 6 5 4 4 3
7 7 6 5 6 6 8 14 15 15 15 14 10 10 10 10 12 14 13 16 25 22 17 17 22 23 18 22 16 13 11 11 8 7 7 5 4 3
7 6 5 6 6 8 14 16 18 15 12 8 7 7 9 11 13 15 17 16 22 20 17 17 24 24 20 22 17 14 12 11 9 8 8 7 5 4
6 5 6 6 9 13 16 16 13 10 9 8 8 8 8 10 12 12 17 15 17 18 18 17 22 26 21 23 19 15 13 11 11 9 9 9 7 5
5 7 6 9 12 14 14 11 10 8 7 8 8 8 8 8 9 10 10 10 12 14 18 17 21 29 22 23 19 17 14 13 12 11 10 9 8 8

GFSNE_250_rhum_039.txt.gz
RH
51 50 50 44 36 31 26 26 26 22 26 20 18 21 28 32 30 26 22 21 24 28 24 19 16 11 8 6 6 5 5 5 5 6 6 7 7 8
54 55 48 42 34 28 28 26 24 22 16 21 29 30 27 22 18 16 21 22 17 10 6 6 5 5 5 4 4 3 3 3 3 3 3 3 4 5
57 55 46 33 30 29 26 24 19 17 21 33 34 33 23 18 20 19 11 7 5 4 4 3 3 3 2 2 2 2 2 2 2 2 2 2 2 3
58 45 35 35 29 28 23 18 23 28 33 30 32 23 20 28 22 12 6 5 4 4 3 3 2 3 3 2 2 2 2 2 2 2 2 2 2 2
49 42 37 31 28 21 21 28 35 37 31 22 19 25 26 16 8 6 6 4 4 4 3 3 2 2 2 2 2 2 2 2 2 2 2 2 2 2
44 36 32 24 21 24 32 34 38 34 24 19 20 21 11 8 6 5 4 4 4 3 3 2 2 2 2 2 2 2 2 2 2 2 2 2 2 2
39 31 23 22 28 34 36 38 30 24 20 20 17 8 6 6 5 4 4 4 3 3 3 2 2 2 2 2 2 2 2 2 1 1 1 1 2 2
30 24 24 34 33 42 39 33 27 19 18 11 7 6 5 4 4 4 4 3 3 3 4 2 3 2 2 3 2 2 2 2 2 2 2 2 1 1
26 27 37 37 44 40 36 29 23 19 10 7 6 5 5 5 5 4 3 3 3 4 5 3 4 3 4 4 4 4 3 3 2 2 2 2 2 1
35 36 42 44 39 34 26 23 21 10 7 6 5 5 5 5 4 4 4 4 3 3 6 7 7 6 6 5 5 5 5 4 4 3 3 3 2 2
40 47 43 42 38 26 22 19 9 7 5 4 5 6 4 4 4 5 5 5 5 4 7 8 9 7 10 8 7 6 5 5 5 4 4 4 4 3
48 44 44 36 26 21 16 8 7 5 4 5 5 4 4 5 6 7 8 8 9 7 9 9 9 9 8 10 7 8 7 6 6 6 5 4 4 3
49 49 36 26 19 12 8 7 5 5 6 5 4 4 5 5 5 8 11 13 13 10 11 11 10 10 12 8 8 9 7 7 7 6 5 5 4 4
48 35 27 19 11 8 6 4 5 6 6 5 5 5 5 6 9 11 13 14 18 14 12 13 11 12 11 10 13 9 9 6 6 6 5 4 4 4
41 29 19 10 8 6 4 6 6 5 5 5 5 5 7 11 13 12 12 14 20 18 14 16 13 14 14 13 14 9 8 8 6 5 5 4 4 4
31 19 10 8 6 4 6 6 5 5 5 5 5 7 9 10 11 13 10 13 17 22 18 17 14 13 16 16 12 9 9 7 6 5 4 4 3 3
14 9 7 5 4 6 6 5 5 6 6 7 10 9 10 10 11 12 12 12 16 18 21 19 15 14 17 16 13 11 10 7 6 5 4 4 3 3
9 7 4 5 6 6 5 5 6 6 9 10 9 9 9 9 8 9 11 11 11 16 18 18 15 15 19 16 14 12 10 8 6 5 5 3 3 3
7 4 5 6 6 5 6 6 6 8 10 10 9 8 8 8 8 9 11 11 11 13 17 15 15 16 22 17 14 13 10 8 7 6 4 4 3 3
4 5 7 6 5 6 6 9 9 10 9 9 8 8 7 8 9 11 12 13 12 13 14 13 15 17 21 18 15 13 11 9 7 6 4 4 3 3
6 7 6 6 6 6 9 10 10 9 8 7 6 6 7 9 9 9 12 11 15 14 14 13 15 23 19 18 16 12 12 10 8 6 5 5 4 3
7 5 6 7 6 9 10 10 9 9 7 7 7 7 8 7 8 8 9 10 12 13 12 14 15 22 19 20 17 13 12 10 9 8 6 5 4 4
6 6 8 7 10 12 11 10 8 7 7 7 7 7 7 7 7 8 8 8 8 10 10 15 16 21 21 20 17 14 13 11 10 9 8 6 5 6

GFSNE_250_rhum_042.txt.gz
RH
52 52 48 46 47 51 58 60 53 52 49 38 30 26 23 20 20 22 22 30 31 29 31 30 25 20 18 14 10 8 6 6 6 6 5 5 5 5
64 52 48 48 53 58 61 56 53 43 33 33 25 20 16 19 25 25 25 25 26 28 22 16 12 9 6 5 5 5 4 4 4 4 4 4 4 4
55 50 51 57 61 62 58 54 48 37 33 26 19 20 27 27 21 20 21 23 22 16 8 6 5 4 4 4 4 4 4 3 3 3 3 3 3 3
57 59 62 69 67 61 54 46 40 28 21 18 28 38 30 25 22 24 23 17 9 6 5 5 4 4 4 4 4 4 3 3 3 2 2 2 2 2
71 74 72 69 61 52 42 33 26 22 25 29 35 31 29 26 25 24 14 6 5 5 4 4 4 4 4 4 3 3 3 2 2 2 2 2 2 2
74 74 63 51 46 40 30 25 25 33 37 28 25 25 25 28 18 9 6 5 4 4 4 4 4 3 3 3 3 2 2 2 2 2 2 2 2 2
66 54 48 44 37 29 25 29 42 32 26 24 22 25 25 15 8 6 4 4 3 4 4 3 3 3 3 3 3 3 3 2 2 2 2 2 2 2
54 50 43 38 29 28 37 46 32 27 23 19 25 22 13 7 6 4 4 4 4 3 4 3 4 4 4 4 3 4 3 3 4 3 2 2 2 2
52 47 36 29 30 48 43 34 31 23 20 24 22 10 6 5 4 4 5 4 4 4 5 3 5 4 5 6 5 5 5 4 4 4 4 3 2 2
46 34 30 34 53 37 38 34 26 24 26 20 9 6 4 4 5 5 4 4 4 4 5 4 6 6 7 8 8 7 7 6 5 5 4 4 4 3
36 31 47 51 43 43 32 26 26 26 14 7 6 4 4 6 5 5 5 5 5 4 6 7 9 8 9 10 9 9 10 9 6 6 5 5 4 4
35 54 47 49 46 31 26 26 27 12 7 5 4 5 6 5 5 5 6 6 9 10 9 9 10 12 8 12 10 10 10 8 9 8 6 6 6 5
55 47 53 46 31 26 26 21 10 7 5 4 5 6 4 4 5 5 8 13 15 16 15 12 10 12 14 8 8 10 11 10 9 9 8 6 6 6
50 52 41 30 27 26 18 9 7 4 4 6 5 4 4 4 5 9 12 14 16 24 18 15 15 16 15 14 12 9 9 15 11 8 7 7 6 5
52 44 32 28 26 13 8 6 4 4 6 5 4 4 4 6 8 8 9 11 11 17 17 16 17 16 17 15 11 11 11 11 11 10 8 6 6 5
45 34 29 19 10 9 5 4 5 6 5 5 5 4 7 8 8 8 8 7 7 9 14 12 16 15 15 16 14 13 15 12 10 8 7 6 5 4
33 25 13 9 8 4 4 5 6 5 5 5 6 8 8 8 8 8 7 6 7 6 9 9 12 15 14 12 14 17 15 12 10 7 6 5 4 3
19 11 9 6 4 4 6 5 4 5 5 7 8 8 8 8 7 7 8 8 7 8 8 10 11 13 13 13 15 14 13 12 9 7 6 5 4 3
10 9 6 4 5 6 4 5 5 5 8 8 7 7 7 6 7 8 9 9 8 9 12 12 12 12 13 15 21 17 14 10 8 7 5 4 3 3
9 5 4 6 6 4 5 5 7 9 8 7 7 6 6 6 8 8 8 8 8 10 13 14 14 12 14 20 17 14 11 10 8 7 5 4 3 3
5 5 7 6 5 6 5 8 9 8 7 6 6 6 6 7 7 7 7 6 7 9 12 15 13 14 20 20 18 14 11 9 9 6 4 4 3 3
5 8 6 6 6 7 10 9 8 8 6 6 6 6 7 8 6 6 6 6 8 10 12 13 13 16 21 20 17 12 11 10 9 6 5 5 3 3
8 6 6 7 9 11 10 8 8 7 6 6 6 7 7 6 6 6 6 6 8 9 11 12 15 20 20 19 14 12 12 10 9 6 5 6 4 4

GFSNE_250_rhum_045.txt.gz
RH
82 82 79 84 84 85 86 80 69 61 59 63 65 62 57 55 47 38 28 21 19 16 16 24 22 26 27 25 23 21 20 19 16 14 11 8 6 5
85 81 88 88 86 86 81 74 69 59 57 63 57 53 43 37 31 21 17 16 18 22 23 22 22 22 22 19 13 8 6 5 5 4 4 4 4 4
84 92 89 87 88 82 72 66 56 57 57 53 49 39 33 22 17 15 16 20 22 20 20 19 19 15 8 6 5 5 4 4 3 3 3 3 3 3
90 84 82 84 78 66 55 53 55 47 45 40 39 30 19 17 16 18 21 19 19 19 19 15 8 6 5 3 3 4 3 4 3 3 3 3 3 3
80 76 74 68 58 50 48 49 45 41 38 31 27 22 20 20 22 21 19 21 20 15 7 5 5 3 3 4 5 4 4 3 3 3 3 3 2 2
76 70 65 54 47 47 46 41 39 37 32 26 20 22 27 23 18 20 22 21 11 5 5 4 3 4 4 5 4 4 3 3 3 3 2 2 2 2
74 63 52 48 49 46 41 40 36 35 25 22 26 26 21 20 21 23 18 8 6 3 4 4 4 4 4 4 4 4 4 4 3 3 2 2 2 2
64 59 53 53 47 46 39 40 28 28 27 27 24 17 21 22 22 18 7 5 3 3 5 4 4 4 4 4 5 4 4 4 4 4 5 5 4 3
65 60 54 50 46 40 38 28 31 38 27 17 20 22 23 22 11 7 4 3 4 4 4 4 3 4 4 5 7 7 6 7 6 6 7 6 7 6
67 58 54 47 46 30 29 38 42 31 21 22 23 22 15 7 6 4 4 5 4 3 4 6 4 5 5 10 11 10 9 10 8 8 7 7 7 8
74 65 51 40 30 31 47 46 27 22 24 24 18 10 7 4 4 5 5 4 4 3 4 8 7 11 6 11 11 11 10 10 9 9 8 8 8 7
65 59 38 29 34 51 42 24 24 28 25 17 8 6 3 4 5 5 5 6 5 7 6 10 6 12 9 7 10 12 10 11 12 11 9 8 8 8
46 35 34 46 51 38 24 26 28 25 14 7 5 3 5 5 4 4 4 6 10 11 11 13 8 8 10 7 9 12 9 12 12 12 11 12 10 8
36 45 58 51 35 26 30 30 21 9 7 4 4 5 4 4 4 4 6 8 8 13 12 10 9 8 8 8 8 10 9 14 13 13 13 11 9 8
64 60 49 42 34 33 28 14 8 6 4 5 5 4 4 4 5 7 6 7 7 8 10 8 7 6 8 8 9 10 11 10 12 13 12 10 9 8
62 58 46 37 33 23 10 8 5 4 6 5 4 4 4 6 6 7 6 6 6 5 9 7 6 8 9 10 9 10 13 12 12 13 11 9 8 6
57 44 35 27 14 9 7 4 4 6 4 4 4 6 7 7 7 6 5 5 6 5 7 8 8 10 10 10 11 13 12 18 18 14 9 8 7 6
39 30 18 10 9 6 4 4 6 4 5 6 7 7 6 6 5 5 6 6 6 6 7 8 9 11 10 10 13 14 20 19 14 10 10 8 6 4
20 11 10 8 6 4 5 6 4 4 6 8 7 6 5 5 5 5 6 7 6 7 7 8 9 12 12 12 12 18 18 15 11 11 8 6 5 4
10 9 7 5 4 6 6 5 5 7 7 6 5 4 5 5 5 7 7 6 6 7 7 8 11 13 12 13 18 18 15 12 11 8 6 5 4 4
8 6 5 5 7 6 5 6 8 7 6 6 5 5 5 6 7 6 5 5 6 6 7 9 13 12 13 19 19 16 12 12 9 7 6 4 4 5
5 5 6 7 6 6 8 9 7 6 6 5 6 6 6 6 6 5 5 5 6 6 8 10 10 13 18 20 17 12 11 10 8 6 6 5 5 5
5 8 8 6 6 10 10 8 7 6 6 6 6 6 6 5 5 5 5 5 6 7 8 9 13 19 21 18 13 12 12 9 7 8 7 6 5 4

GFSNE_250_rhum_048.txt.gz
RH
88 85 75 71 73 62 66 66 59 58 85 91 75 74 65 61 57 52 48 48 42 35 26 20 14 13 18 27 24 23 20 19 19 20 19 18 15 12
100 98 91 87 79 69 62 62 59 49 48 60 62 55 54 49 45 43 43 36 28 20 13 12 16 25 22 19 19 19 17 16 12 8 6 5 4 5
100 98 93 93 85 79 68 66 60 52 44 54 44 42 38 38 38 35 26 20 15 12 17 23 20 18 18 19 18 15 10 6 4 4 4 3 3 3
88 94 92 86 84 78 73 69 64 54 43 38 41 38 35 34 31 22 16 13 15 25 22 18 18 20 16 11 6 5 5 4 3 3 3 3 3 3
85 94 88 82 85 77 72 67 58 47 39 34 33 33 32 30 18 13 13 23 23 19 19 19 15 9 5 5 4 3 3 3 4 4 4 3 3 3
79 81 82 81 80 74 68 56 54 42 35 34 32 34 25 15 12 14 24 23 22 19 15 8 6 5 3 3 3 4 4 4 3 3 3 3 3 3
74 72 75 78 78 71 65 58 46 42 41 42 37 22 15 13 18 23 23 24 18 8 7 5 4 3 3 4 4 4 3 3 3 3 3 3 3 3
74 76 75 75 79 66 55 51 49 46 42 29 22 15 16 20 22 25 22 15 12 4 4 4 3 4 4 4 4 4 4 4 3 3 3 3 3 4
70 74 81 75 66 64 61 53 54 52 32 20 17 19 23 25 24 18 14 8 6 3 3 5 4 3 4 3 5 5 5 6 7 8 8 7 7 7
80 82 75 74 71 57 60 65 47 34 26 25 24 26 25 21 15 11 7 6 4 3 4 5 3 3 3 3 7 10 10 10 10 11 10 10 10 10
79 76 68 61 68 61 56 40 32 35 32 27 28 24 18 13 7 6 4 4 5 4 2 5 4 5 5 4 8 10 10 9 10 9 8 11 11 10
75 71 70 70 57 37 34 39 40 35 29 28 21 15 9 7 5 4 5 5 4 4 3 6 6 7 8 4 7 8 8 8 8 9 10 10 10 10
81 79 58 40 39 45 49 40 31 29 26 18 11 8 7 4 4 4 4 4 4 7 7 8 6 6 7 7 4 7 8 7 8 8 11 11 10 10
58 45 45 54 55 51 40 31 26 22 12 8 8 5 4 5 4 4 4 5 6 9 8 6 6 5 5 5 5 6 7 6 8 9 11 11 11 11
51 61 58 56 53 37 26 24 16 9 8 6 4 4 5 4 4 5 6 6 5 6 6 5 4 4 6 6 6 6 6 8 10 11 10 10 12 12
65 60 56 49 36 27 18 11 9 6 4 4 5 4 4 5 6 6 5 4 4 4 6 6 4 6 7 7 7 9 8 7 12 13 12 14 12 9
60 55 46 32 19 13 9 7 4 4 4 5 4 5 6 6 5 5 5 4 4 4 4 7 6 7 7 8 10 8 8 10 10 12 11 10 9 6
48 36 21 15 11 8 6 4 4 6 5 5 6 6 5 4 4 4 4 4 5 6 6 6 6 7 8 11 10 9 9 13 14 13 11 8 6 6
26 15 11 9 8 5 4 5 6 5 6 6 5 4 4 4 5 6 5 6 6 6 5 6 7 8 10 10 11 16 18 15 12 10 8 7 6 4
12 9 9 7 5 4 6 6 5 7 7 5 5 4 4 5 5 6 6 6 5 5 6 7 8 10 10 11 15 15 13 12 10 9 8 6 5 4
9 8 6 5 5 7 6 6 9 7 6 6 5 5 5 4 5 4 5 5 5 5 6 8 10 9 13 17 17 14 12 11 9 8 7 5 4 4
7 6 6 6 7 6 8 10 8 7 6 6 6 5 4 4 4 4 5 5 6 6 8 10 10 14 18 17 14 12 11 9 8 7 6 5 5 5
6 6 8 8 7 9 11 8 7 7 7 6 5 4 4 4 4 5 5 6 6 8 10 12 16 19 15 13 12 11 9 8 7 7 7 6 6 6

GFSNE_250_rhum_051.txt.gz
RH
60 76 74 77 87 96 94 94 90 96 100 100 94 90 75 67 58 47 46 41 39 40 38 31 23 24 23 25 26 24 17 14 19 24 22 19 17 16
72 90 98 96 92 92 100 99 91 89 95 89 91 88 76 71 67 65 58 49 44 35 27 26 24 24 24 25 18 14 17 22 19 18 17 16 15 14
59 75 86 86 82 80 76 80 78 71 72 79 64 63 58 58 57 52 45 42 38 30 28 27 24 24 19 15 17 20 18 17 15 12 10 8 8 6
67 71 79 85 82 77 73 69 69 66 63 62 61 60 55 51 47 40 36 30 29 28 24 23 16 16 20 24 19 17 14 12 8 5 4 4 4 3
64 74 80 83 80 75 68 62 60 58 52 49 50 48 48 45 38 32 35 34 29 20 16 18 23 25 19 16 13 9 6 5 4 3 2 2 2 2
70 69 69 71 68 68 68 62 56 55 54 50 51 47 38 38 40 41 39 25 21 22 28 27 20 17 14 9 5 5 4 3 3 3 3 3 3 3
78 74 66 66 69 64 61 60 59 57 55 53 47 44 48 50 40 27 19 26 32 25 24 20 12 8 5 5 4 3 3 4 4 3 3 3 3 3
79 75 70 66 62 66 64 62 61 54 44 45 50 47 40 24 19 27 30 29 32 17 10 7 5 5 3 2 3 4 4 4 3 3 3 3 3 3
80 79 87 92 84 77 65 55 51 51 51 48 36 23 26 27 27 28 24 16 10 7 6 7 4 3 3 3 3 4 4 4 4 3 4 5 6 6
92 96 84 76 70 59 54 64 68 54 33 30 34 32 27 24 21 14 9 8 7 6 4 4 3 4 3 2 3 4 6 8 7 6 6 7 8 7
84 81 69 60 64 69 68 58 40 37 44 39 30 25 21 15 9 8 7 6 4 3 3 4 4 4 3 2 3 6 9 11 9 8 7 7 8 8
75 74 78 78 68 52 37 38 47 49 44 33 26 18 12 8 6 5 4 3 3 4 4 4 3 5 5 4 4 6 9 8 7 7 7 8 8 9
87 79 68 55 44 45 52 50 51 43 33 25 18 10 7 6 4 3 3 4 4 3 4 6 5 5 6 5 4 6 7 6 5 6 6 7 7 8
72 59 52 54 61 58 55 53 41 29 21 14 8 7 5 3 4 4 4 4 4 5 6 5 4 4 4 4 5 5 7 6 6 6 6 6 6 8
61 68 67 62 59 53 45 34 24 16 10 8 6 4 4 4 4 4 5 5 4 4 4 4 4 4 4 6 5 7 6 7 6 7 7 7 7 8
69 61 56 53 46 38 26 18 12 9 7 5 4 5 4 4 4 4 4 4 3 4 5 5 4 5 6 6 6 7 7 8 8 8 7 8 9 10
60 53 45 38 28 19 14 10 8 5 4 5 5 4 5 4 4 4 4 4 5 5 6 7 6 6 6 7 7 7 8 10 8 8 7 8 12 11
44 39 33 21 14 11 8 6 4 5 5 5 5 5 5 4 4 4 4 5 5 6 6 6 6 6 6 6 7 8 9 9 9 13 15 14 13 9
32 21 14 12 9 6 5 5 6 6 5 6 6 5 5 5 4 4 4 4 5 5 5 5 6 6 7 8 9 9 10 14 13 10 9 8 7 6
15 12 9 7 6 5 6 7 6 7 7 6 6 5 5 4 4 4 4 4 5 5 5 6 7 8 9 11 14 15 13 11 10 9 7 5 4 4
10 8 6 5 6 7 7 6 9 8 7 7 6 6 5 4 4 4 4 5 5 6 7 8 9 10 14 15 13 11 10 9 8 6 6 5 5 4
6 6 6 7 8 8 8 10 8 8 7 6 7 6 5 5 5 5 5 6 6 7 9 11 16 17 14 11 11 10 8 8 8 7 6 5 4 4
6 7 9 8 8 9 12 9 9 9 7 9 8 6 7 7 7 6 7 8 10 14 17 17 15 13 12 12 10 9 9 8 8 7 7 7 6 5

GFSNE_250_rhum_054.txt.gz
RH
87 76 78 68 59 52 47 46 47 66 97 98 90 85 77 72 68 64 62 61 60 58 49 42 43 37 34 36 31 30 29 30 30 27 26 25 23 20
93 94 81 87 67 63 55 49 51 54 68 86 95 93 87 78 72 67 58 56 54 49 42 38 35 34 32 32 30 28 26 25 25 24 22 19 16 15
96 91 82 68 70 72 68 61 56 54 58 69 74 83 88 82 73 66 58 54 48 41 39 40 40 37 32 30 30 28 26 24 21 17 14 13 12 13
92 74 74 86 80 78 70 66 65 59 53 53 56 63 65 62 59 57 52 48 45 45 44 43 42 41 38 32 28 24 20 18 19 20 20 16 14 12
83 85 75 69 75 75 69 66 63 60 54 50 53 58 58 54 51 50 49 47 44 41 40 39 32 28 21 21 26 29 25 21 17 15 13 10 8 5
67 82 86 87 81 75 69 64 60 61 63 67 68 67 60 59 56 52 57 55 50 38 28 23 24 30 30 26 20 14 12 10 7 5 5 4 4 4
87 87 95 81 83 79 68 64 75 82 81 72 68 65 57 55 55 49 39 32 28 26 30 29 24 20 13 9 7 6 5 6 6 4 3 3 3 3
100 97 91 90 76 72 77 79 76 76 70 64 57 49 46 30 29 32 33 31 32 25 21 18 9 7 6 5 4 4 3 3 3 3 3 3 3 3
94 89 84 77 74 76 75 79 77 68 51 43 36 30 35 36 33 33 29 25 21 13 7 8 6 5 4 3 2 2 3 4 4 4 3 3 2 3
85 77 77 80 83 82 74 68 61 48 41 42 43 43 37 28 24 23 18 12 8 6 5 6 4 3 3 2 3 3 3 4 5 5 4 3 3 4
88 84 82 78 72 67 68 60 54 53 54 49 39 31 27 22 18 13 8 7 6 4 2 4 4 4 3 2 3 3 4 6 7 8 7 6 5 6
78 75 74 75 74 60 52 53 62 59 50 41 33 26 21 14 8 6 6 4 3 4 3 4 4 3 4 3 4 5 5 6 6 5 5 5 6 7
81 82 75 61 53 57 60 61 55 47 41 33 25 16 10 7 6 4 3 3 4 4 4 5 5 4 4 4 3 3 5 4 3 4 4 5 5 5
93 70 59 64 70 65 56 48 42 35 27 18 12 9 7 5 3 3 4 4 4 4 4 4 4 3 3 4 4 3 4 4 4 4 4 4 5 6
63 65 71 63 54 49 43 35 27 18 12 11 7 5 4 4 4 4 4 4 4 3 4 4 4 4 5 5 4 5 4 5 4 5 5 6 6 7
72 61 52 48 43 36 26 18 12 10 8 6 5 4 5 4 4 4 4 4 4 4 4 4 4 5 5 6 6 6 6 6 6 6 7 7 8 9
55 51 43 34 25 18 12 9 8 6 5 5 6 6 5 5 4 4 4 4 4 3 4 4 4 5 6 5 5 5 6 6 7 7 9 9 8 8
46 35 26 19 13 8 7 6 6 6 6 6 6 6 5 5 4 4 3 3 3 4 4 4 4 4 5 5 6 6 8 8 9 8 9 12 13 13
26 17 11 8 7 6 6 6 7 7 6 8 7 6 5 5 4 4 4 4 4 5 5 5 5 6 7 8 8 9 10 12 15 16 14 12 11 10
12 8 7 6 6 6 7 8 7 9 9 7 7 6 6 6 5 5 5 5 6 6 5 6 7 8 8 10 14 15 13 12 11 10 10 8 8 8
7 6 6 7 8 8 8 8 12 11 8 8 7 8 8 6 6 6 7 7 7 8 8 10 13 15 15 14 12 12 11 10 9 8 7 6 5 5
6 7 8 9 8 8 10 13 11 10 10 9 9 10 8 8 9 11 12 14 16 16 17 16 14 13 12 10 9 9 8 8 7 8 8 7 6 6
8 9 9 9 9 13 14 12 12 12 11 11 12 12 12 14 18 21 22 21 20 16 15 14 12 11 10 11 10 10 10 11 11 10 9 8 7 6

GFSNE_250_rhum_057.txt.gz
RH
100 100 100 100 100 90 90 95 90 85 91 99 99 92 78 68 64 59 54 49 46 47 50 59 68 68 66 61 53 46 43 40 37 36 34 33 32 31
100 100 100 99 96 93 97 87 90 96 84 76 87 85 85 79 71 63 60 57 51 47 46 51 52 52 52 54 53 49 44 41 39 37 34 31 28 26
100 100 100 98 99 88 79 89 98 87 75 82 75 75 73 70 66 63 59 55 54 52 52 55 59 60 56 54 51 46 39 35 31 27 25 25 24 22
100 100 100 98 92 86 91 90 78 72 71 62 58 64 64 62 59 60 68 73 72 72 73 74 74 69 63 56 50 44 38 37 33 33 30 24 20 17
100 100 95 93 90 86 82 80 76 57 54 52 60 58 58 59 63 67 70 72 66 57 50 49 47 43 40 37 32 28 25 22 23 26 27 23 20 17
97 98 100 94 96 88 83 83 80 84 82 68 60 64 65 64 69 67 66 56 46 37 30 29 30 32 32 29 27 26 25 24 24 22 19 16 13 10
93 94 94 98 100 100 100 91 80 72 76 69 70 76 78 73 60 49 38 36 38 36 33 31 26 24 21 18 14 12 11 10 7 6 5 5 4 4
94 95 98 100 100 89 89 74 75 79 79 82 86 68 55 44 38 39 38 32 29 26 24 23 17 14 9 6 5 4 4 4 4 4 3 3 2 2
97 89 84 89 86 82 72 77 77 79 78 68 53 45 41 41 38 35 31 27 25 19 12 10 6 6 5 4 3 3 2 2 2 3 4 4 3 3
100 98 87 79 75 71 74 76 80 72 59 52 49 50 42 35 29 25 22 17 12 8 5 5 5 4 3 3 2 2 2 3 3 3 4 3 3 2
92 89 85 72 63 73 78 74 68 63 62 55 44 35 31 26 19 14 10 7 7 5 3 2 3 3 4 4 2 2 2 4 5 4 4 4 4 4
82 71 56 68 72 73 71 68 69 65 52 41 33 26 21 17 11 7 6 4 4 4 3 4 4 4 4 4 3 2 3 4 4 3 3 4 4 5
57 62 69 76 75 71 70 66 56 47 42 35 29 24 14 9 6 4 3 4 4 4 4 5 5 3 3 4 4 3 4 4 3 3 3 4 4 4
87 97 96 87 84 74 62 53 46 39 33 27 17 11 7 5 4 4 4 4 4 4 4 3 3 3 4 4 4 4 4 4 4 4 4 4 4 4
98 93 89 77 70 56 43 38 32 26 16 11 8 6 5 5 6 5 5 5 4 4 4 3 3 3 3 4 4 5 5 6 5 6 6 6 6 5
86 78 72 52 42 38 31 24 14 10 8 7 6 6 6 6 6 7 5 4 4 4 3 3 3 4 4 4 5 5 5 5 5 6 6 6 6 6
61 49 42 39 31 22 14 10 8 7 7 7 7 7 7 8 7 6 5 5 5 5 4 4 4 4 5 5 5 5 6 6 6 7 8 7 8 8
45 38 30 20 14 9 8 7 8 8 8 8 7 9 8 7 7 7 6 6 5 6 6 6 6 7 7 7 8 8 8 8 9 9 10 9 10 10
28 20 13 9 8 7 7 8 8 8 7 9 10 8 7 8 8 7 7 8 8 9 10 10 10 10 10 10 12 12 13 12 12 11 11 11 11 11
18 11 8 7 7 8 9 9 8 10 11 10 9 8 9 10 10 11 13 16 19 19 18 17 16 15 14 12 11 10 10 10 10 9 8 8 7 7
11 8 8 8 10 9 9 11 12 12 10 9 9 10 13 13 15 20 23 23 20 18 16 14 12 11 11 10 10 9 9 9 8 8 8 7 7 7
8 8 9 10 10 10 14 15 12 11 11 11 12 13 16 16 22 25 24 20 17 15 13 13 12 12 11 11 10 10 10 10 9 9 9 9 8 8
8 9 12 11 12 17 16 13 12 12 12 13 13 18 19 23 28 26 22 19 16 14 14 15 15 16 15 15 14 14 14 13 13 13 13 11 10 9

GFSNE_250_rhum_060.txt.gz
RH
100 100 100 100 100 100 96 93 98 93 96 100 86 89 91 90 98 83 76 76 77 66 55 53 55 52 50 51 52 56 55 54 50 48 50 56 60 59
100 100 100 100 99 95 99 98 92 70 84 100 99 94 93 82 83 82 83 71 61 56 48 49 55 60 69 74 73 69 68 68 70 67 59 54 51 52
100 100 100 98 100 100 97 91 100 100 97 92 100 90 88 83 84 62 53 53 48 50 54 63 65 61 61 62 59 57 58 55 54 52 52 51 48 44
100 100 100 100 100 100 100 99 99 94 98 88 79 73 72 65 56 66 59 62 67 67 63 59 55 50 46 42 39 38 38 36 34 34 34 33 32 31
97 100 100 100 100 100 100 100 96 94 82 80 80 68 63 68 69 65 73 76 72 63 55 48 42 38 34 34 36 39 37 34 34 35 32 28 24 20
96 100 100 96 97 100 99 80 79 84 92 86 75 77 80 66 71 73 69 66 68 59 46 41 41 40 36 31 28 24 23 22 20 20 19 19 19 19
100 100 100 83 97 100 94 90 82 90 78 70 68 64 64 70 66 66 61 56 50 45 44 38 30 26 21 18 14 10 8 7 6 6 5 5 5 6
88 96 100 78 83 89 89 91 79 65 58 60 59 84 84 69 58 55 45 43 41 42 38 34 20 17 11 8 6 5 4 4 4 4 4 4 4 4
88 100 100 100 90 82 71 68 79 78 73 92 86 78 63 52 42 44 44 38 36 29 21 21 11 7 6 4 3 3 2 2 2 2 4 4 3 2
100 95 96 88 87 89 90 91 81 74 90 80 64 50 43 42 38 36 34 29 25 18 8 6 5 4 3 3 3 2 2 2 3 5 5 4 2 2
73 72 85 91 90 72 78 92 86 80 68 51 46 43 40 38 34 30 24 19 12 7 4 4 4 4 4 4 3 2 2 2 3 4 3 3 3 3
91 99 93 85 81 74 67 68 64 59 52 44 42 40 38 33 26 22 13 7 6 6 5 6 4 4 4 3 3 3 3 3 3 3 4 3 3 4
98 95 82 71 69 72 72 60 49 47 48 48 43 36 28 24 20 9 6 6 7 6 6 6 5 4 4 4 3 3 3 3 3 3 4 4 4 4
83 85 83 82 88 65 53 53 51 51 45 37 32 25 17 10 8 7 7 7 8 8 6 5 4 4 4 4 4 3 4 3 4 4 5 5 5 5
94 98 99 82 66 58 53 49 40 30 25 20 15 9 7 7 9 8 7 8 7 8 6 5 5 5 5 4 4 4 4 4 4 5 5 5 5 5
84 87 77 62 52 46 40 32 23 16 12 8 7 7 8 8 8 11 10 9 8 6 7 7 6 6 6 6 6 6 6 6 6 6 6 5 6 6
76 66 57 48 44 40 28 17 10 8 7 8 9 8 9 11 12 11 10 9 9 10 11 13 13 12 12 12 12 11 11 10 9 9 8 8 8 8
65 56 46 43 35 20 12 8 7 8 9 9 10 13 13 12 11 11 12 14 16 17 18 17 15 14 13 12 12 12 12 12 12 12 12 11 10 11
58 45 37 27 16 9 7 7 10 9 9 12 13 11 11 11 12 12 15 20 21 20 17 15 15 13 11 11 11 10 10 10 9 9 9 8 8 8
44 28 22 14 9 7 8 10 10 12 15 13 11 12 12 13 12 18 23 22 20 17 16 15 14 14 12 11 11 11 11 11 11 10 8 8 8 8
25 18 14 11 8 8 11 10 14 16 13 11 12 12 13 14 22 26 25 22 20 17 16 16 16 16 16 16 16 16 15 14 12 11 10 10 10 10
15 14 12 10 9 12 12 14 19 15 13 13 14 14 15 22 29 27 24 21 20 18 16 16 16 17 18 17 16 16 16 15 15 14 14 14 11 8
12 14 12 10 12 14 13 19 19 15 13 15 16 15 20 32 31 27 24 21 18 16 18 19 20 21 19 17 18 17 16 16 16 14 16 13 13 12

GFSNE_250_rhum_063.txt.gz
RH
100 100 100 100 100 100 100 97 99 95 94 100 95 95 91 95 88 70 62 72 79 75 74 67 62 61 56 56 60 53 51 51 53 59 71 80 81 78
100 100 100 100 100 98 100 100 100 99 88 96 94 96 95 88 90 84 77 74 75 66 63 60 57 53 58 56 55 54 52 58 57 56 57 59 61 66
100 100 100 100 100 100 99 98 97 100 87 99 99 90 82 76 67 72 80 81 71 60 47 49 53 54 52 53 54 49 51 53 50 48 45 42 42 41
100 100 100 100 100 100 88 100 98 78 92 95 98 97 90 67 72 86 83 72 63 61 49 54 55 50 47 44 42 46 46 39 36 36 35 35 36 36
100 100 100 100 100 94 97 100 100 94 89 79 81 80 89 98 86 71 66 67 69 58 60 58 50 42 37 40 43 43 41 37 34 31 29 28 27 27
100 100 100 99 98 93 98 100 100 100 78 84 93 93 92 76 66 74 74 66 61 60 54 47 45 43 42 42 37 30 24 21 18 16 14 13 12 11
100 100 99 100 91 100 100 100 92 79 78 84 88 93 80 75 73 65 55 56 57 58 52 58 48 37 32 27 23 19 12 6 5 5 5 5 4 5
100 94 84 100 100 100 100 94 88 81 76 78 75 72 78 63 58 57 56 50 60 61 50 41 34 32 24 18 9 5 4 3 3 3 3 3 3 3
100 99 91 97 100 85 75 67 72 74 75 75 92 91 72 62 68 70 66 55 45 41 33 38 32 21 16 6 4 3 3 3 3 3 3 4 3 3
84 79 81 83 74 74 80 81 92 88 90 78 65 64 67 60 51 47 41 40 37 33 25 28 14 10 6 5 5 4 3 3 3 3 3 3 3 3
68 72 80 83 90 93 98 94 96 89 78 70 65 57 51 45 42 40 38 34 31 22 13 9 6 7 5 5 6 5 4 3 3 3 3 3 3 3
98 100 98 93 93 100 100 100 94 84 66 60 57 49 44 41 39 36 30 22 11 10 8 8 6 6 9 6 5 5 4 3 3 3 2 2 3 3
100 100 100 100 100 100 98 84 74 66 60 52 44 42 40 36 32 18 10 8 8 8 9 10 8 7 7 7 5 6 4 4 4 4 4 3 4 4
100 100 100 100 100 90 80 72 66 62 51 44 41 34 27 16 10 8 8 8 8 10 12 9 8 8 9 8 8 7 8 5 5 5 4 4 4 5
100 100 100 96 91 91 79 66 54 45 42 36 25 16 10 8 9 9 8 9 10 11 9 10 11 13 17 16 14 13 12 13 8 7 6 6 5 5
100 100 100 96 82 68 55 46 42 36 26 16 11 8 9 10 10 11 11 10 8 10 13 16 18 18 15 14 12 12 12 11 12 12 11 10 8 7
96 86 82 74 60 47 43 38 26 18 13 10 8 10 10 12 12 10 11 11 12 11 16 19 18 16 14 12 11 10 10 10 10 10 10 10 10 11
74 70 62 56 45 38 32 18 13 12 10 9 11 12 14 12 10 12 12 13 16 21 21 18 15 14 16 15 14 15 14 11 9 9 8 8 8 9
63 56 51 43 32 24 15 13 11 10 10 11 12 15 13 12 14 14 14 20 23 24 21 17 17 17 17 18 20 17 15 16 14 12 10 8 8 8
50 44 41 27 18 15 13 12 10 10 12 12 18 15 13 14 15 15 22 26 24 21 18 19 19 21 18 18 16 18 18 15 14 14 15 15 13 11
42 34 28 17 16 13 12 11 10 12 12 17 15 14 15 16 16 23 29 27 22 19 20 21 26 23 20 20 21 22 20 18 16 14 13 11 10 14
39 30 25 14 14 14 12 11 13 12 18 19 16 16 16 17 22 30 28 26 21 23 26 27 22 21 22 22 21 19 19 19 18 17 15 14 13 10
31 35 20 16 15 14 12 13 13 16 20 18 18 18 18 17 29 30 28 22 25 25 24 20 22 28 28 25 20 19 19 20 19 19 19 17 15 14

GFSNE_250_rhum_066.txt.gz
RH
100 100 100 100 100 100 100 100 100 100 100 100 100 100 95 100 74 87 89 88 75 78 79 71 68 73 75 75 73 66 66 62 63 60 64 59 55 58
100 100 100 100 100 100 100 100 100 100 100 100 100 92 96 89 64 68 71 65 66 72 69 69 73 75 74 72 68 67 61 62 53 48 46 44 45 50
100 100 100 100 100 100 100 100 100 100 100 100 100 94 90 99 91 72 65 59 70 81 77 63 63 67 80 77 72 66 52 48 46 45 48 44 42 44
100 100 100 100 100 100 100 100 100 100 100 100 93 78 82 86 91 100 82 77 79 77 75 79 69 68 63 57 53 47 46 50 53 45 44 42 39 37
99 100 100 100 100 100 100 100 100 100 100 100 100 100 85 99 99 96 100 95 84 69 64 61 59 58 52 48 50 49 44 42 40 39 37 37 34 30
90 88 97 100 100 100 100 100 100 94 98 97 99 98 96 86 78 83 80 73 73 70 62 59 56 56 53 46 42 37 41 42 42 37 31 24 18 14
67 81 95 97 99 100 97 93 88 85 99 100 100 95 81 76 72 76 72 76 78 71 57 64 57 55 52 44 43 41 37 33 24 14 9 7 5 4
68 84 100 99 100 98 98 93 91 86 95 95 79 83 88 74 70 80 71 63 64 64 60 61 46 49 45 40 33 23 12 8 6 5 4 4 4 4
69 84 99 99 98 98 79 74 75 81 82 82 80 72 68 66 71 67 69 76 69 48 45 52 49 42 36 21 10 7 6 7 5 4 4 4 4 4
79 93 98 96 89 88 90 90 79 79 78 76 68 68 66 72 75 71 55 48 47 46 42 44 32 23 11 6 6 6 8 7 6 6 4 4 3 3
83 85 81 77 78 85 81 79 80 82 79 84 83 80 77 72 58 48 45 46 46 40 33 28 14 9 7 6 6 9 10 8 6 5 5 4 4 3
81 88 92 93 88 98 100 97 98 100 96 96 86 72 54 47 45 45 43 38 32 24 13 11 7 8 9 6 7 8 8 8 8 10 8 7 6 5
96 97 100 100 100 100 100 100 100 100 88 74 58 48 44 45 43 37 27 16 12 10 9 10 9 11 10 10 7 10 13 14 14 14 13 11 8 6
100 100 100 100 100 100 100 99 86 68 54 47 45 46 42 36 23 12 10 9 8 10 11 13 12 11 11 10 12 16 15 15 12 12 12 12 12 10
100 100 100 100 93 85 79 72 60 53 50 48 41 29 17 12 11 9 8 9 11 16 14 12 12 11 13 18 17 15 14 13 12 10 10 9 10 11
88 84 83 80 74 68 63 58 48 40 32 22 13 11 11 11 10 10 11 13 13 12 14 16 17 19 19 19 17 14 13 12 10 10 10 9 9 10
78 79 75 68 61 53 46 38 28 22 14 11 10 10 9 10 12 14 14 13 12 12 16 24 27 24 20 18 15 16 15 13 12 10 11 12 10 8
76 70 61 53 44 38 32 22 22 17 11 11 11 10 11 13 16 15 14 13 14 21 22 24 22 19 19 21 26 15 16 19 18 16 14 13 13 11
70 62 54 44 38 30 26 25 19 13 12 13 11 13 14 18 15 13 14 17 23 27 28 24 20 18 16 17 22 20 17 16 17 17 16 15 16 16
65 55 47 35 34 35 26 24 15 14 13 12 13 14 19 17 15 16 18 23 29 30 26 23 24 24 26 23 18 20 22 21 19 19 17 16 15 15
57 49 40 46 43 27 24 20 16 14 12 13 14 17 20 15 16 18 21 29 31 28 22 25 34 29 29 30 32 28 27 26 24 20 18 15 15 16
52 47 54 54 35 24 23 18 16 14 14 14 14 21 16 16 17 19 25 36 32 27 28 36 37 35 39 38 34 28 26 28 31 36 36 29 26 18
52 63 62 45 33 24 21 17 16 14 16 14 16 20 17 16 19 21 33 35 28 26 36 37 37 52 47 37 38 36 32 38 42 45 43 40 35 35

GFSNE_250_rhum_069.txt.gz
RH
100 100 100 100 100 100 100 100 100 100 100 100 100 100 100 100 100 100 100 100 91 89 71 81 58 61 73 75 73 74 76 81 77 73 73 78 77 72
100 100 100 100 100 100 100 100 100 100 100 100 100 99 95 100 100 100 100 100 98 98 81 74 76 80 81 77 76 69 69 72 67 62 62 70 81 81
79 93 99 100 100 100 100 100 100 100 100 100 100 100 100 100 100 100 100 98 88 77 80 90 88 90 95 86 90 93 91 77 70 69 69 65 61 61
67 79 90 96 100 100 100 100 100 100 100 100 100 100 100 100 100 100 99 100 100 100 94 100 80 86 82 86 84 79 67 60 56 61 64 64 61 55
34 44 54 58 73 91 100 100 100 100 100 100 100 100 100 92 89 91 91 100 100 99 76 68 71 85 83 65 66 65 59 56 57 58 53 49 46 43
31 36 41 47 55 66 80 94 99 99 100 100 97 95 96 89 86 84 84 80 84 77 68 74 74 63 58 58 54 46 46 48 46 48 49 47 42 36
17 26 41 50 52 59 72 78 94 99 100 100 93 94 82 84 83 84 87 95 90 66 65 60 57 59 51 48 44 44 46 47 44 41 36 31 23 13
16 22 32 49 67 72 69 74 96 100 100 98 98 73 95 89 77 68 72 63 61 57 58 52 50 49 46 46 44 40 36 35 30 24 15 8 6 5
29 56 56 66 82 92 96 98 97 96 95 90 96 83 88 75 68 65 62 57 51 44 42 48 46 48 42 38 32 25 21 18 11 7 6 6 6 5
80 90 97 98 99 99 98 96 96 89 80 78 78 77 73 64 59 51 42 40 41 44 47 52 45 45 36 21 14 11 10 8 8 8 8 7 7 6
71 70 72 74 74 70 68 70 73 77 78 77 75 72 69 60 56 47 46 48 48 46 42 36 22 20 13 8 7 8 9 10 10 9 8 7 6 6
76 77 79 82 84 86 85 87 97 100 100 100 98 78 61 54 54 53 47 40 32 27 17 14 10 9 9 7 8 11 12 12 10 10 11 12 11 11
82 92 96 100 100 100 100 100 99 97 91 86 75 62 57 53 46 38 31 20 13 11 11 12 8 8 10 14 8 9 11 12 13 14 14 12 11 10
85 85 85 88 90 88 86 81 75 70 64 57 52 47 41 32 23 16 13 11 11 11 9 10 10 12 12 12 10 10 12 16 16 14 13 12 11 10
83 84 80 77 73 70 67 64 59 54 50 42 32 28 20 17 14 11 11 11 10 11 16 14 14 12 12 13 14 14 16 14 14 16 15 17 15 14
82 82 75 70 68 64 58 56 52 45 36 34 37 23 16 11 11 12 10 10 11 13 18 14 13 14 15 20 22 18 16 15 14 14 13 15 14 14
83 77 74 68 63 60 56 52 43 46 52 37 19 13 11 11 12 11 12 12 15 15 13 15 19 19 23 27 23 18 14 15 16 16 15 15 15 14
79 77 71 67 63 62 54 48 56 55 35 24 15 12 12 11 11 14 15 20 17 15 15 16 22 27 25 24 35 28 24 22 23 23 22 20 21 19
80 78 71 65 61 54 49 58 60 45 31 22 14 13 12 12 14 15 21 19 17 17 19 24 28 25 19 16 20 22 22 25 26 27 28 26 25 23
81 74 66 58 51 46 62 64 58 40 28 18 14 13 12 14 15 18 18 18 18 20 28 34 28 23 25 20 21 31 35 32 28 27 21 23 24 22
84 74 63 47 43 66 69 64 56 34 23 16 13 13 14 15 16 19 16 18 18 23 35 30 27 29 26 30 47 47 38 36 39 45 44 35 26 22
84 68 46 49 74 77 72 66 44 28 20 15 13 12 14 15 19 16 18 18 19 31 32 27 31 31 37 56 57 46 44 55 58 58 65 65 64 49
77 56 50 74 78 73 71 54 31 20 16 13 11 13 14 16 17 17 18 19 24 32 30 29 34 34 57 54 44 51 61 66 63 58 72 73 70 64

GFSNE_250_rhum_072.txt.gz
RH
97 100 100 100 100 100 100 100 100 100 100 100 100 100 100 100 100 100 100 100 100 100 100 100 98 99 100 89 79 91 82 76 76 78 77 71 76 79
28 33 37 54 66 87 97 100 100 100 100 100 100 100 100 100 100 100 100 100 100 100 100 100 100 100 94 94 81 85 100 97 95 96 91 88 93 92
19 22 26 31 37 49 68 90 100 100 100 100 100 100 100 100 100 100 100 100 100 100 100 100 99 96 81 77 82 93 100 100 89 92 90 95 96 88
20 18 19 21 28 32 39 58 80 95 100 100 100 100 100 100 100 100 100 100 100 91 94 84 83 73 66 84 87 92 95 94 98 96 97 98 87 70
9 8 10 10 13 26 37 43 50 57 69 85 86 77 89 96 98 100 100 96 92 84 83 72 75 78 90 81 84 77 71 63 56 48 51 51 53 51
12 10 9 9 11 15 23 44 59 64 63 60 59 60 71 83 90 95 90 82 80 77 83 82 84 75 66 58 55 49 45 45 47 50 53 56 59 58
31 19 12 14 14 16 22 33 43 56 69 80 80 77 73 80 80 85 89 86 86 91 81 60 61 57 47 42 42 44 47 51 52 52 53 52 50 46
46 39 40 34 32 30 38 42 47 57 78 92 91 79 74 80 93 100 100 90 77 64 62 49 49 48 45 46 48 48 45 41 40 38 35 31 25 22
44 46 47 47 51 63 80 87 92 94 95 97 98 98 98 96 96 91 82 69 56 51 50 49 47 44 38 33 32 29 27 26 25 21 13 11 10 9
52 49 47 49 54 62 67 71 76 78 78 79 76 73 72 70 65 59 55 52 49 46 45 45 36 35 28 22 19 14 12 12 10 10 9 8 7 7
57 56 55 55 61 64 67 71 74 75 78 76 78 74 75 73 70 66 60 57 57 40 32 29 23 21 12 9 9 10 10 9 8 8 9 8 9 9
72 77 81 81 82 84 84 80 78 78 78 77 75 74 70 68 65 59 51 46 33 23 23 20 12 10 9 7 8 8 9 10 12 11 10 10 10 11
82 78 80 81 83 84 85 81 77 72 68 67 65 63 62 57 50 40 32 22 21 16 13 11 9 8 9 11 6 10 12 13 12 12 14 16 18 16
77 84 90 96 93 87 79 71 68 64 62 62 61 58 50 45 45 39 23 20 14 12 11 12 10 9 10 12 12 11 11 15 17 19 21 18 16 14
80 85 85 79 77 73 69 66 63 64 63 60 50 44 47 58 46 27 20 13 12 12 11 11 11 11 15 15 12 14 15 16 22 21 18 17 16 16
86 84 81 78 76 70 62 62 68 63 44 37 44 63 65 55 33 21 14 13 11 9 12 15 16 15 14 15 20 20 17 18 16 17 17 18 19 18
86 88 85 82 77 72 66 67 58 39 45 67 74 71 61 39 21 14 13 12 11 12 12 18 17 14 15 19 24 23 18 19 20 19 20 24 25 20
91 93 86 81 75 71 64 64 48 62 76 74 72 62 41 24 15 13 12 13 12 12 16 15 15 16 19 26 36 27 24 25 28 30 30 30 36 39
94 89 81 79 74 68 68 55 55 64 72 71 61 42 25 15 12 11 11 13 12 16 15 16 17 20 25 23 38 34 26 28 35 40 37 31 30 39
94 87 83 77 69 63 60 51 64 72 71 63 46 26 15 12 12 11 12 13 17 16 14 18 18 25 26 22 24 37 36 34 37 40 32 36 37 45
87 85 77 72 64 61 49 54 65 67 63 52 30 16 12 12 11 12 13 14 18 15 15 19 25 26 25 28 32 43 45 48 43 46 49 43 45 54
86 80 72 71 63 51 47 53 52 58 54 31 14 11 11 11 10 12 13 17 15 15 16 23 27 25 29 29 43 45 53 49 60 68 69 62 59 54
83 74 77 68 62 55 53 44 54 54 30 13 10 10 10 10 11 12 15 16 13 16 19 27 26 23 29 42 51 56 62 74 79 82 93 97 98 90

GFSNE_250_rhum_078.txt.gz
RH
53 37 31 41 57 35 31 27 29 22 18 16 14 14 31 55 98 100 100 100 100 100 100 100 100 100 100 100 100 100 100 100 100 97 100 100 100 100
41 39 62 66 42 35 33 34 28 22 16 16 10 8 22 34 81 100 100 100 100 100 100 100 100 100 100 100 100 100 100 100 100 100 100 100 100 100
49 62 61 43 40 37 40 36 33 25 19 18 11 10 11 27 35 65 100 100 100 100 100 100 100 100 100 100 100 100 100 100 100 100 100 100 100 100
80 67 45 43 39 43 40 41 37 35 32 26 19 12 13 20 40 56 92 100 100 100 100 100 100 100 100 100 100 100 100 100 100 100 92 79 83 81
74 49 46 41 45 44 43 46 40 37 37 36 31 25 24 27 33 44 55 95 100 100 100 100 100 100 100 100 98 99 93 91 82 73 79 92 96 96
54 49 43 47 49 45 48 43 40 39 41 40 39 40 40 49 55 60 64 70 80 89 93 99 100 99 99 100 99 91 82 77 73 70 73 73 71 63
52 46 50 52 49 49 49 45 41 39 41 44 43 42 44 45 50 58 65 72 75 75 77 78 78 86 81 77 74 69 67 64 63 60 55 51 48 45
45 50 53 57 52 56 50 47 45 43 43 47 51 54 58 59 59 61 62 61 56 55 57 63 60 62 62 60 59 59 55 53 50 46 42 41 39 37
49 51 55 56 54 57 56 52 47 46 50 54 58 60 64 67 70 70 71 72 74 72 61 54 50 48 47 44 43 38 37 37 38 35 27 22 19 15
53 53 57 57 61 62 57 56 58 61 57 55 59 63 63 63 64 66 67 64 59 49 43 36 33 32 30 29 27 29 37 42 34 24 18 14 11 10
58 60 62 68 69 69 67 66 66 61 56 56 57 59 60 62 65 64 60 52 42 44 52 63 65 62 54 42 33 32 28 24 14 11 9 8 8 8
66 71 75 73 76 73 70 68 66 59 57 59 59 58 60 64 64 60 45 39 40 51 61 66 64 62 52 30 17 14 14 15 12 10 9 9 9 9
77 85 85 85 81 75 73 73 66 62 58 58 59 63 67 65 65 53 49 47 48 54 58 57 52 53 51 40 11 8 11 13 12 11 10 10 12 13
84 85 89 85 80 81 80 72 64 58 58 62 68 67 66 68 62 55 49 41 38 39 42 47 53 51 37 22 11 8 11 12 13 14 16 17 16 14
92 90 86 89 92 86 78 66 62 61 67 70 68 69 67 67 55 52 41 40 42 49 49 42 30 22 16 12 11 9 13 11 18 18 16 18 21 20
95 94 94 95 85 75 66 66 66 73 76 71 72 71 69 60 52 41 38 46 50 43 27 17 15 14 13 10 10 10 13 14 15 19 21 23 27 28
94 91 86 79 72 69 72 75 77 75 74 78 74 71 58 50 38 38 46 48 38 18 11 11 13 12 10 10 9 13 16 15 14 19 31 30 34 31
86 85 81 75 74 74 74 76 74 74 80 76 70 54 51 39 37 42 46 31 14 11 11 11 11 11 9 9 13 15 16 15 17 26 32 27 31 28
84 82 85 86 85 75 71 74 78 84 79 71 54 59 48 38 43 42 27 13 11 11 11 12 11 10 9 10 20 22 14 17 22 31 30 26 36 42
84 91 93 93 83 76 71 78 83 82 78 61 63 54 41 43 46 31 13 12 11 10 10 11 11 11 10 11 17 19 16 22 26 32 30 32 38 50
98 98 98 87 83 77 76 82 83 80 72 64 60 45 40 47 39 17 14 12 11 10 10 11 12 13 16 14 17 22 20 23 26 29 50 46 47 58
98 97 89 87 85 78 82 84 84 80 72 64 53 39 44 47 23 16 14 14 14 13 12 14 18 18 16 13 18 32 28 25 27 39 45 48 59 77
92 90 86 85 80 81 89 86 82 77 73 60 45 38 48 43 16 18 16 17 21 22 21 18 18 16 16 15 21 31 30 29 32 43 55 52 57 66

GFSNE_250_rhum_081.txt.gz
RH
89 86 84 72 54 36 49 46 46 33 35 34 38 38 35 28 21 20 17 12 14 18 90 100 100 100 100 100 100 100 100 100 100 100 100 100 100 100
96 87 71 52 41 59 63 58 44 39 34 42 41 38 36 35 29 21 20 12 21 29 86 100 100 100 100 100 100 100 100 100 100 100 100 100 100 100
84 77 58 55 71 74 74 51 46 40 39 46 44 38 38 39 39 32 26 24 24 47 82 93 100 100 100 100 100 100 100 100 100 100 100 100 100 100
72 60 66 80 92 76 55 53 44 42 47 47 47 42 39 38 41 46 50 64 52 43 67 99 100 100 100 100 100 100 100 100 100 89 100 100 100 100
63 81 88 94 75 59 54 47 45 48 51 52 49 46 42 41 36 37 40 47 51 53 57 67 91 100 100 100 100 100 100 100 100 100 98 94 89 84
96 100 94 78 60 57 49 47 46 50 53 54 52 50 44 42 43 42 40 40 42 47 51 57 65 71 79 87 94 100 100 99 92 87 85 90 89 89
100 90 76 64 61 49 48 49 47 53 57 58 54 50 48 47 47 50 51 56 61 61 58 54 51 48 48 56 64 69 72 70 69 71 69 68 67 63
92 73 69 66 50 50 53 52 57 61 60 62 56 54 52 51 51 53 52 55 59 56 54 57 55 53 52 52 50 43 38 43 49 54 58 59 57 53
74 70 67 52 50 58 57 60 63 62 66 65 61 61 63 58 56 53 55 56 53 54 54 56 46 39 38 37 38 40 42 42 40 38 36 37 33 28
72 69 56 53 67 63 68 64 67 68 67 71 76 72 65 60 56 55 56 56 54 55 55 52 48 44 43 45 50 52 57 64 63 61 60 54 45 32
62 55 56 70 69 70 78 79 77 82 82 78 73 69 64 60 58 58 62 60 57 56 57 54 44 40 34 35 39 45 51 52 51 50 49 46 26 14
53 57 73 78 73 82 90 89 85 82 79 77 70 66 64 62 61 63 59 56 55 57 55 47 40 34 31 35 39 42 45 46 45 37 30 20 10 9
62 77 80 77 91 98 95 89 81 76 73 68 67 66 60 65 66 64 60 60 55 46 45 41 32 36 46 50 34 27 22 17 14 15 17 11 9 10
81 82 89 99 100 98 91 84 78 72 72 68 62 60 66 69 69 68 65 56 50 44 32 31 36 43 44 36 23 9 8 8 9 12 12 10 11 13
82 92 99 100 98 91 88 77 76 74 74 73 69 63 68 69 72 69 60 56 48 30 28 34 39 30 17 13 12 8 10 8 9 12 10 11 14 18
97 100 99 94 93 86 77 79 80 82 82 80 72 65 69 72 72 62 56 49 31 28 31 32 16 12 11 9 9 10 10 10 9 12 11 14 18 16
100 100 95 86 82 80 81 85 83 85 87 77 68 67 73 75 74 57 53 34 32 34 27 12 12 11 9 9 9 10 9 9 10 11 14 16 16 17
100 93 84 85 85 83 79 78 88 92 85 77 66 73 80 80 66 57 42 31 35 33 16 12 11 10 9 9 10 10 9 9 11 13 15 16 22 22
87 86 87 84 85 84 74 85 93 87 83 74 66 81 86 76 61 52 33 32 35 26 16 14 13 10 8 9 12 12 8 12 13 13 17 19 25 27
88 88 89 92 91 82 83 92 91 86 82 68 74 84 86 71 59 40 32 33 34 22 18 17 19 17 13 11 15 24 12 10 13 16 22 22 26 31
89 92 98 95 86 90 93 88 85 81 76 69 79 85 78 65 47 34 32 35 34 22 20 21 26 23 19 15 13 16 17 12 16 21 27 24 22 38
97 100 97 96 94 92 84 87 78 79 71 80 84 84 70 56 37 32 33 36 37 23 21 21 27 29 25 18 13 15 18 14 19 27 29 25 28 40
96 96 100 92 91 84 85 84 81 70 76 86 90 79 59 44 33 33 34 37 38 23 24 22 24 26 24 18 14 16 20 15 22 25 28 26 36 41

GFSNE_250_rhum_084.txt.gz
RH
100 100 100 100 100 100 83 75 64 51 43 55 50 39 39 38 43 47 46 40 40 36 30 23 27 23 34 61 69 85 100 100 100 100 100 100 96 100
100 100 100 100 96 87 84 72 53 46 60 65 45 44 42 43 47 50 49 46 46 40 34 36 37 38 37 51 94 100 100 100 100 100 100 100 88 100
100 99 94 84 92 90 76 62 64 74 72 54 46 43 41 46 52 53 53 51 52 46 54 56 52 50 48 52 55 95 100 100 100 100 100 100 100 100
87 83 87 90 90 82 72 62 83 83 76 50 44 42 45 48 54 57 57 56 50 47 44 46 49 54 56 54 51 60 73 100 100 100 100 100 100 100
70 88 82 95 75 87 74 87 89 79 57 47 41 44 48 54 57 62 62 56 50 49 48 50 48 47 47 49 58 65 65 67 81 95 100 100 100 100
83 82 96 80 97 84 93 91 87 64 53 43 47 50 57 63 67 66 63 57 57 55 55 57 54 55 54 54 53 54 57 61 69 69 81 94 85 84
98 94 91 96 90 100 94 90 70 60 46 49 55 66 66 68 69 66 63 64 64 59 55 56 54 53 53 53 53 56 60 57 48 44 52 66 70 67
100 83 100 89 100 93 78 74 68 48 50 62 69 65 73 75 72 71 73 66 62 62 60 56 51 53 53 54 53 54 52 47 46 43 40 38 40 42
81 100 100 100 89 77 79 66 50 52 69 72 76 79 74 71 75 72 64 60 57 54 52 53 53 52 52 48 42 41 40 42 43 41 37 39 46 48
100 100 100 87 83 72 61 52 56 75 74 80 82 80 80 78 69 65 65 60 56 53 54 54 56 50 45 43 39 37 36 35 35 36 37 37 36 40
100 94 90 89 72 58 60 59 77 79 81 80 81 80 73 69 72 67 61 61 55 51 56 61 49 44 44 45 34 28 30 33 38 44 48 49 48 47
92 98 84 70 60 63 66 83 82 82 83 82 83 73 75 78 70 65 61 61 54 55 60 66 49 44 43 28 26 29 34 37 41 41 41 42 39 33
97 84 69 69 74 76 79 81 88 86 82 84 76 81 79 71 68 66 63 59 56 60 64 60 51 42 31 29 28 23 19 14 14 14 16 17 16 13
80 70 74 73 81 79 82 91 88 84 75 74 79 77 71 74 73 68 65 60 61 65 59 52 48 31 27 32 22 9 9 11 11 12 14 14 14 13
73 75 74 84 86 91 93 87 83 74 74 79 80 72 70 78 76 72 67 63 71 64 52 50 34 27 30 23 15 10 11 8 9 10 10 12 11 11
76 73 72 96 100 92 86 83 77 84 86 83 74 75 77 82 79 73 65 72 69 51 44 38 29 28 26 16 14 14 12 9 7 8 9 8 8 10
65 65 80 97 92 88 84 83 88 90 86 81 83 80 84 87 81 72 71 75 59 47 37 30 29 30 21 17 16 17 13 10 9 9 9 8 10 11
64 82 98 95 88 88 88 92 98 92 90 91 84 82 86 84 75 65 77 69 52 42 34 29 28 31 20 19 20 18 17 11 10 12 10 11 15 13
96 99 98 90 93 93 95 100 97 91 92 88 82 84 89 83 66 72 75 59 44 36 29 29 29 31 20 20 25 30 18 15 15 21 16 15 18 14
100 100 92 92 94 100 100 97 95 87 86 83 83 87 86 72 65 77 64 46 37 28 26 28 31 32 24 21 18 28 33 17 11 14 16 17 17 16
95 90 94 98 100 99 96 94 84 88 94 88 86 85 75 65 78 71 51 36 30 28 27 26 31 38 29 25 22 16 22 22 14 14 18 17 17 24
90 94 98 100 95 94 91 88 91 95 90 85 83 77 63 74 74 53 37 30 28 27 27 28 31 33 27 26 26 19 13 17 19 14 18 19 22 26
98 100 100 93 96 88 90 97 94 88 80 82 76 66 71 74 56 36 31 28 27 26 26 28 31 32 22 22 26 22 15 14 15 14 21 23 24 23

GFSNE_250_rhum_087.txt.gz
RH
100 100 100 100 100 100 100 100 96 77 76 76 85 72 58 53 39 50 44 39 44 45 48 49 46 48 45 40 33 31 33 34 37 62 83 100 100 100
100 100 100 100 100 100 94 76 58 72 57 86 80 65 65 58 59 51 42 43 45 50 54 58 57 60 59 52 50 47 42 42 42 42 78 99 100 100
100 100 91 74 52 45 57 59 76 62 80 91 81 72 73 62 54 48 47 50 49 57 63 63 62 64 59 53 50 49 55 53 48 47 51 88 100 100
91 58 31 46 56 66 64 73 69 91 92 92 71 79 67 54 54 49 55 60 61 64 65 68 65 61 54 48 49 50 49 50 55 52 49 51 68 78
30 26 58 52 66 66 80 78 100 93 90 72 89 74 58 54 49 57 62 65 73 72 66 61 56 52 53 53 51 49 50 52 56 59 58 56 54 54
47 63 44 61 77 85 99 95 97 88 76 92 73 64 53 48 60 65 68 77 72 65 62 58 54 56 54 50 47 50 54 57 56 54 55 58 62 66
48 57 74 92 91 99 93 95 91 81 86 73 61 55 50 61 66 71 77 70 68 66 61 61 58 57 56 51 47 51 57 61 61 57 53 52 55 57
63 87 83 94 88 91 96 84 84 93 63 61 57 53 61 72 71 82 73 69 59 63 64 59 55 54 50 45 46 54 58 49 41 40 41 42 41 41
72 78 99 99 88 94 80 100 82 72 71 58 57 65 70 79 86 75 73 66 64 63 59 55 52 51 46 45 50 51 43 39 37 34 31 29 28 29
75 88 92 89 91 94 100 93 74 77 64 59 68 70 79 85 73 69 67 68 68 63 56 52 53 49 47 53 54 46 42 39 32 29 29 31 33 35
79 87 84 83 100 100 92 77 81 67 63 68 69 76 79 78 73 70 69 70 67 61 59 57 53 48 52 58 51 41 36 28 28 32 35 34 30 29
87 76 97 100 100 92 80 85 71 71 73 75 73 77 81 74 72 74 76 71 68 63 65 60 52 50 58 57 38 31 27 29 33 34 27 17 14 12
96 100 100 100 87 89 83 76 72 75 84 80 82 85 74 74 81 80 77 75 67 66 68 64 52 54 61 47 32 25 26 29 27 19 18 16 14 12
100 96 99 92 87 85 77 74 71 71 82 87 84 77 79 84 87 80 83 76 70 72 70 64 56 62 53 37 26 23 26 25 18 17 16 16 12 11
100 96 84 94 89 79 77 69 64 83 92 85 79 80 82 86 85 85 81 74 74 75 73 61 63 57 36 28 26 24 27 20 18 17 17 14 11 10
90 87 93 91 82 78 66 63 82 97 92 84 80 82 89 91 88 82 83 76 76 73 65 65 67 36 27 26 27 26 30 19 20 21 18 13 10 10
92 98 88 84 75 71 69 88 100 98 91 86 84 88 98 91 83 86 87 84 76 65 54 74 53 29 25 26 26 30 31 21 20 25 21 17 13 10
99 83 79 73 76 74 94 100 100 97 91 90 88 94 88 88 87 92 94 84 70 54 66 55 34 30 25 24 26 29 31 22 22 25 23 16 17 14
80 73 78 75 80 96 100 100 100 95 97 90 95 88 88 90 93 94 92 77 58 68 58 34 31 28 26 24 24 32 36 28 23 22 18 18 13 16
72 73 77 98 99 100 99 100 96 94 89 89 93 91 93 98 92 87 77 62 63 64 33 28 28 27 27 26 25 25 36 33 27 22 21 18 16 14
88 97 100 100 99 98 100 98 88 91 87 95 88 92 100 94 85 74 61 59 63 40 30 26 24 25 25 27 29 29 21 25 27 24 19 16 17 15
100 100 100 100 98 100 100 90 87 83 94 89 93 100 94 84 74 58 58 62 38 30 27 25 23 23 24 27 32 30 18 14 22 25 21 18 15 16
100 100 100 100 99 100 90 88 82 93 96 97 99 90 87 81 58 56 63 46 30 27 25 24 22 22 23 26 25 20 13 11 12 16 17 22 17 15

GFSNE_250_rhum_090.txt.gz
RH
100 100 100 100 100 100 100 100 100 100 100 67 45 64 66 60 68 70 67 54 57 52 42 43 48 49 56 56 52 48 45 42 36 37 40 45 55 52
100 100 100 100 100 100 100 100 100 97 38 39 57 63 60 65 76 70 60 54 58 49 43 50 54 60 59 55 52 50 47 46 48 47 45 44 52 65
100 100 100 100 100 100 100 100 80 35 46 52 67 71 71 79 78 67 56 50 50 44 50 58 62 61 60 56 48 49 50 50 49 49 51 51 47 50
100 100 100 100 100 100 67 33 28 46 55 58 70 80 82 83 77 63 55 58 47 51 62 67 70 66 58 52 53 52 49 47 46 46 46 48 51 48
100 100 100 100 69 38 37 38 45 54 62 69 77 86 86 87 71 59 58 50 51 65 69 70 67 63 56 56 54 49 48 46 44 43 42 44 52 54
96 89 69 41 32 38 46 67 58 65 70 79 88 91 89 80 71 60 52 55 69 68 72 67 62 58 56 52 48 49 53 50 46 45 48 53 56 61
41 37 39 32 50 45 62 57 67 71 73 92 89 98 93 92 67 57 58 70 66 76 70 61 59 57 56 50 50 54 52 46 44 52 57 57 54 51
30 36 31 36 50 56 48 56 66 77 92 98 95 83 94 75 60 61 66 65 78 74 70 66 61 57 52 51 52 52 47 44 50 55 54 48 42 40
32 29 40 47 48 43 66 66 82 94 99 94 82 97 76 71 65 68 77 91 80 71 66 64 60 58 54 52 52 53 46 46 54 55 46 38 36 33
40 38 32 33 52 62 72 91 96 99 95 100 80 71 75 69 68 90 93 83 76 71 70 65 62 58 56 54 54 51 45 51 54 44 34 30 26 24
23 23 30 45 55 90 87 92 85 96 100 100 72 80 73 67 72 86 86 79 76 74 72 65 63 59 58 59 59 53 49 56 41 31 27 24 24 25
29 40 64 73 92 89 91 95 100 100 86 77 80 78 70 69 77 91 81 80 77 76 80 77 67 62 60 56 53 49 51 46 30 26 24 24 24 25
65 80 88 94 88 94 98 97 96 91 86 87 82 74 66 68 94 87 85 82 80 85 87 76 68 67 66 59 51 50 52 30 26 24 24 25 27 19
80 78 80 81 100 99 99 94 94 82 85 85 80 66 68 92 92 90 86 86 85 90 83 77 76 74 69 60 49 51 34 28 25 25 25 28 26 16
64 73 94 100 100 97 96 92 89 88 85 81 70 70 95 92 92 91 90 84 88 87 77 80 83 74 62 53 50 39 30 25 24 25 25 30 28 20
83 98 100 95 96 99 91 86 89 83 81 71 70 95 88 88 92 93 88 90 89 78 82 92 86 74 52 48 47 29 29 25 23 25 25 29 28 23
100 99 100 100 99 92 88 91 81 78 74 75 97 85 82 87 90 91 89 88 80 78 88 93 85 66 51 49 29 28 26 24 23 25 27 28 26 28
100 100 100 97 88 94 88 78 75 72 80 97 87 83 88 88 95 88 90 88 78 86 87 78 67 59 57 32 27 23 22 23 24 26 29 28 19 31
100 99 96 93 85 78 75 72 74 91 95 89 82 86 89 97 93 90 94 84 86 85 76 62 64 63 34 28 24 21 22 24 26 26 28 26 15 18
100 100 95 80 72 78 86 90 97 95 92 84 81 92 100 97 88 96 91 94 88 78 57 56 63 41 30 26 24 22 21 22 24 26 26 25 19 13
100 96 82 83 91 95 95 94 90 88 86 82 90 98 98 86 95 94 95 89 84 68 47 58 40 30 25 24 25 24 22 19 18 19 17 16 16 14
97 82 81 88 94 97 93 91 88 90 88 88 97 95 84 94 99 92 88 88 76 50 54 49 30 25 22 24 25 24 19 14 13 14 14 13 12 11
95 81 88 95 97 96 97 95 95 90 91 96 92 88 98 99 88 89 91 83 57 52 55 36 27 23 22 24 24 19 16 15 12 10 8 11 12 11

GFSNE_250_rhum_093.txt.gz
RH
100 100 100 100 100 100 100 100 100 99 100 100 99 100 99 79 45 36 42 59 65 64 63 55 49 46 42 48 50 52 50 46 46 47 47 46 41 40
100 100 100 100 100 100 100 100 100 100 100 100 100 99 78 51 38 47 50 63 68 69 63 56 52 43 48 53 55 50 47 48 50 50 47 46 46 44
100 100 100 100 100 100 100 100 100 100 100 100 87 59 50 37 49 53 58 62 68 75 68 60 51 50 57 55 56 50 51 50 52 51 49 48 46 44
100 100 100 100 100 100 100 100 100 100 96 86 54 41 35 48 58 69 64 69 79 68 61 54 53 60 59 61 60 52 51 53 52 49 47 48 46 40
100 100 100 97 100 100 100 88 95 86 76 49 44 36 49 52 68 71 69 86 81 76 63 61 67 62 64 66 57 57 54 49 46 47 47 45 42 39
32 38 45 62 70 68 60 58 51 64 46 40 33 43 48 61 75 74 88 87 79 60 67 69 66 70 71 60 59 58 55 51 46 46 47 43 39 36
35 57 52 51 62 62 45 47 45 36 39 39 40 44 68 84 79 82 92 74 73 74 70 65 75 73 70 65 65 60 56 52 47 47 44 36 35 38
37 33 37 44 43 42 38 35 39 37 37 41 42 78 82 85 89 100 88 82 71 70 67 66 76 76 71 68 67 63 60 54 49 48 40 35 38 41
33 39 39 36 30 32 32 32 34 36 37 41 51 67 80 90 94 93 80 70 71 70 63 76 82 77 72 70 68 66 63 57 53 47 36 36 41 36
33 32 33 30 32 34 29 30 30 31 42 48 66 76 89 100 92 78 79 74 71 64 64 93 84 78 74 72 67 68 64 58 54 44 38 38 35 24
38 38 30 28 24 24 27 26 37 50 59 72 83 95 98 95 81 78 78 77 70 62 87 89 85 76 76 74 75 69 63 57 46 42 39 37 25 23
31 26 24 25 28 26 30 40 56 70 74 94 99 100 96 84 83 78 84 76 64 84 89 84 78 74 77 76 72 68 65 53 42 42 40 28 24 23
25 27 26 28 31 43 49 61 72 84 90 100 100 96 80 88 82 86 76 68 86 90 82 78 77 83 84 76 70 71 70 53 42 43 32 26 24 22
28 28 33 34 37 61 56 76 94 91 100 96 91 86 86 83 87 78 68 83 92 85 81 84 90 90 78 76 72 73 67 43 51 40 26 25 23 22
32 38 40 45 63 66 85 87 99 100 95 90 93 87 87 92 78 70 82 89 85 84 86 94 93 82 81 80 78 70 52 44 45 29 26 23 22 22
42 45 54 78 82 84 93 100 100 95 100 94 84 88 90 77 72 84 91 83 83 85 93 94 86 86 86 84 72 49 43 49 29 25 23 22 22 23
49 57 77 91 95 100 100 100 100 100 94 88 86 81 74 70 82 92 86 84 84 90 92 91 91 97 92 81 53 46 47 30 27 24 22 22 22 24
78 88 95 99 99 100 100 100 100 93 82 81 74 70 78 86 92 92 83 88 90 95 92 92 100 100 92 69 49 50 31 27 25 22 22 24 21 19
90 96 97 99 100 100 100 100 95 86 74 72 84 90 89 86 89 82 86 92 96 94 92 97 100 97 82 52 58 35 24 23 24 23 24 23 17 12
97 100 100 100 100 100 100 99 90 76 81 91 93 88 88 90 84 88 92 93 93 93 98 100 99 88 64 52 54 25 23 24 23 24 20 18 16 13
100 100 100 100 100 100 100 92 78 83 89 94 92 91 97 95 90 94 93 95 93 100 100 100 93 80 50 55 36 24 23 23 25 20 16 20 16 10
100 100 100 100 100 100 100 83 81 87 92 96 99 99 100 95 92 92 98 96 100 100 99 97 86 64 50 46 28 24 24 25 25 15 16 17 14 10
100 100 100 100 100 100 100 93 84 85 94 100 100 100 99 90 92 99 100 100 95 97 96 92 77 58 52 36 26 24 25 28 20 15 14 15 12 9

GFSNE_250_rhum_096.txt.gz
RH
100 100 100 100 100 100 100 100 100 100 100 100 100 99 100 100 83 59 65 47 50 38 40 40 46 43 56 54 45 44 50 53 52 51 49 46 45 45
100 100 100 100 100 100 100 100 100 100 100 100 100 100 92 63 65 67 50 41 43 42 41 52 48 64 66 54 46 52 56 56 55 52 52 50 50 49
100 100 100 100 100 100 100 100 100 100 100 100 99 71 47 36 38 46 42 51 39 39 47 51 65 75 64 49 53 58 64 63 57 54 56 54 52 48
100 100 100 100 100 100 100 100 100 100 100 45 42 49 48 35 42 39 44 41 40 48 52 65 78 70 56 56 55 62 71 67 59 56 57 51 47 46
100 100 100 100 100 100 100 98 72 37 38 36 58 39 32 38 40 41 38 41 40 55 66 81 70 63 57 59 59 64 72 65 61 58 52 46 42 42
100 100 100 100 92 59 36 29 33 39 35 41 36 36 37 35 35 34 37 41 58 65 77 79 72 57 65 64 58 71 75 70 63 56 49 46 45 44
51 49 37 31 30 29 31 32 33 39 35 44 43 33 35 29 30 39 44 49 72 80 88 71 59 68 68 62 66 79 75 69 61 54 53 52 50 45
28 28 28 28 28 29 31 32 32 38 33 39 40 33 28 27 34 44 58 81 84 89 73 67 67 72 69 67 85 84 78 68 61 62 59 57 51 38
29 29 28 29 29 30 32 32 41 47 48 43 31 25 27 33 53 58 78 95 96 84 74 71 75 75 68 82 88 80 71 66 67 67 64 57 42 32
27 29 28 28 28 27 29 36 44 68 58 33 25 30 39 48 61 82 92 98 91 74 73 76 80 69 78 86 81 73 70 77 77 69 66 53 35 34
27 28 30 31 31 31 34 47 52 58 49 25 32 38 52 68 86 92 92 93 73 76 78 84 73 77 88 82 75 70 78 84 74 74 67 48 33 37
24 27 27 27 28 30 33 40 42 36 28 32 41 57 73 86 86 90 92 77 84 77 85 75 72 91 82 79 74 78 87 80 81 81 71 43 37 39
25 26 27 28 29 30 29 30 28 32 34 48 56 69 88 85 90 96 84 86 80 82 80 72 92 81 80 76 75 81 83 85 86 85 69 43 40 33
25 28 28 27 27 28 31 33 42 42 50 66 73 81 82 90 96 92 92 79 82 81 75 91 83 76 78 77 77 81 86 86 93 79 61 44 35 24
30 30 31 33 36 38 42 54 61 58 73 82 81 84 85 96 91 90 81 81 77 79 92 85 77 79 83 82 87 84 84 92 83 64 51 43 25 22
32 32 34 44 48 49 65 76 73 72 75 86 88 88 94 98 91 79 79 79 90 90 85 78 78 85 86 88 89 85 96 93 68 54 47 27 22 21
35 38 38 43 47 50 64 77 76 82 83 88 95 97 95 95 79 80 91 98 90 82 78 80 88 95 94 89 88 91 96 80 58 49 32 25 21 22
39 41 43 53 64 72 78 79 81 83 94 96 98 96 95 84 78 93 100 94 85 85 79 89 98 100 96 90 92 93 86 67 53 40 26 26 23 23
62 65 69 76 85 86 88 91 96 94 95 99 100 98 94 78 87 99 98 91 89 88 90 97 97 98 100 99 90 89 82 52 49 27 24 24 26 22
79 81 86 90 93 93 96 98 95 96 98 100 98 100 83 81 90 99 95 94 94 94 97 96 93 95 100 100 97 82 67 59 42 24 24 24 26 17
95 98 98 100 100 100 100 98 92 98 100 100 100 94 83 89 99 94 93 96 99 98 90 92 92 98 99 100 94 78 54 51 34 24 25 27 27 15
100 100 100 100 100 100 98 96 100 100 97 100 100 100 96 91 95 97 92 94 92 90 91 94 97 94 97 96 90 74 55 48 29 24 25 31 27 18
100 100 100 100 100 98 100 100 100 100 100 100 100 100 99 91 92 96 97 97 95 88 91 95 93 95 94 91 86 68 58 44 28 23 22 32 27 24

GFSNE_250_rhum_099.txt.gz
RH
100 100 100 100 100 100 100 100 100 100 100 100 100 100 100 100 100 100 100 74 30 29 29 28 31 34 45 50 42 50 51 47 46 49 52 58 58 54
100 100 100 100 100 100 100 100 100 100 100 100 100 100 100 100 100 100 72 31 28 29 28 29 30 38 48 51 54 60 58 48 55 51 54 60 60 56
100 100 100 100 100 100 100 100 100 100 100 100 100 100 100 100 100 71 35 30 28 28 29 32 38 48 52 58 64 63 58 55 57 50 54 65 63 56
97 100 100 100 100 100 100 100 100 100 100 100 100 100 100 100 50 36 32 29 31 33 31 37 50 62 62 70 73 68 54 62 56 52 66 68 63 57
36 47 74 82 91 97 100 98 100 100 100 100 100 100 92 40 34 36 33 36 37 33 34 52 61 64 78 82 75 61 65 69 57 60 69 65 59 54
29 30 34 35 32 33 46 88 89 100 100 81 59 42 36 34 35 34 35 38 35 33 42 62 65 83 89 83 69 66 71 62 60 72 69 62 56 51
30 30 30 30 30 31 33 34 34 35 36 39 35 33 35 34 34 30 40 44 39 39 51 67 79 96 96 75 69 75 71 64 77 75 66 60 56 52
31 30 29 30 31 30 32 32 31 34 33 35 36 35 33 35 34 37 42 41 31 46 60 83 92 98 82 75 76 77 68 75 77 69 61 61 58 60
26 28 30 30 31 31 33 34 33 33 35 37 34 34 34 35 34 44 56 37 40 62 83 92 98 85 76 77 80 75 70 80 74 65 64 65 65 66
26 26 27 28 29 31 31 32 33 32 34 38 36 38 36 33 54 55 40 46 62 80 88 96 93 83 76 78 80 72 82 78 71 70 71 70 68 72
28 28 29 29 30 31 33 32 31 33 35 38 35 32 31 46 55 44 46 75 89 94 97 94 94 80 79 82 76 80 82 77 74 78 79 71 73 77
20 21 21 23 25 28 29 31 31 32 30 30 29 30 38 41 53 56 78 80 92 96 96 92 85 81 83 80 78 85 81 76 80 83 80 76 76 77
19 20 22 22 23 25 26 28 30 30 31 29 30 32 44 63 69 75 82 87 94 92 89 84 83 83 76 74 86 82 78 80 84 88 83 78 80 75
18 20 21 23 25 26 27 28 29 29 32 34 35 47 69 74 84 88 100 96 96 91 85 86 82 77 83 90 83 76 80 88 95 91 84 88 84 67
23 23 24 26 28 29 30 31 33 39 40 42 54 75 82 84 100 98 93 97 93 89 90 81 79 95 94 81 72 75 84 99 95 89 94 94 86 56
26 27 27 28 29 31 34 36 41 44 52 62 80 84 91 95 100 100 97 93 90 92 84 81 99 97 91 87 81 83 95 90 85 92 94 89 77 46
29 30 32 33 37 42 43 47 50 60 77 79 81 91 96 97 98 100 99 92 93 90 78 97 99 98 92 89 87 88 90 88 92 95 97 90 60 43
39 38 39 40 44 51 55 62 69 73 81 84 88 92 98 100 100 99 95 98 94 78 90 100 100 99 94 93 89 85 90 90 91 94 94 92 56 39
59 59 57 58 59 61 64 71 77 86 84 88 97 100 100 100 100 100 100 100 86 86 93 94 94 98 97 90 83 89 87 86 91 92 90 84 62 35
69 75 77 80 84 87 86 89 95 96 96 100 100 100 100 100 100 100 100 100 94 96 95 96 97 100 100 95 87 89 92 90 92 88 88 72 53 29
85 85 84 84 87 93 100 100 100 100 100 100 100 100 100 100 100 100 100 100 100 100 93 97 100 100 100 99 90 86 84 92 98 90 87 73 48 25
93 96 99 99 98 98 98 97 99 100 100 100 100 100 100 100 100 97 100 100 100 100 100 93 97 100 100 100 97 91 83 88 91 86 87 75 50 26
94 97 100 100 100 100 100 100 100 100 100 100 100 100 100 100 100 100 100 100 100 100 100 95 100 100 100 100 100 97 90 95 87 84 71 62 41 27

GFSNE_250_rhum_102.txt.gz
RH
100 100 100 100 100 100 100 100 100 100 100 100 100 100 100 100 100 100 100 100 100 100 94 100 57 35 33 33 34 35 39 42 56 63 51 47 54 50
71 96 100 100 100 100 100 100 100 100 100 100 100 100 100 100 100 100 100 100 100 100 98 56 37 34 34 36 40 41 41 54 67 63 54 56 57 49
24 26 32 52 59 59 66 96 100 100 100 100 100 100 90 100 100 100 100 86 98 87 49 38 36 36 33 39 44 43 51 64 68 69 61 62 54 52
23 23 24 25 28 38 63 83 100 95 80 95 100 100 83 91 80 71 54 47 48 52 38 38 37 35 39 50 38 45 54 74 73 74 63 62 56 62
26 26 26 28 29 33 36 39 41 47 53 78 85 61 62 50 39 39 37 40 40 39 39 36 38 39 52 43 47 52 73 84 75 67 68 62 61 70
27 25 28 30 32 33 35 40 44 40 40 37 47 44 39 39 37 37 36 41 41 41 36 39 37 45 55 52 56 67 82 79 76 69 71 62 67 68
26 30 30 27 28 28 31 33 35 37 37 36 38 38 39 39 38 37 37 43 40 42 37 40 43 56 59 61 73 77 84 87 74 74 72 63 71 65
24 25 25 25 27 28 29 32 33 36 35 35 39 41 38 40 36 37 40 43 43 42 41 44 61 62 68 81 81 84 87 88 78 77 69 69 70 62
25 26 26 27 28 28 28 30 31 33 32 34 35 37 36 38 41 39 42 39 38 37 43 63 72 69 77 88 85 88 95 86 77 73 68 76 67 61
24 26 27 28 28 28 30 30 32 33 32 34 34 37 38 38 40 42 38 35 34 38 59 79 72 76 86 90 94 100 94 78 72 70 75 73 63 69
16 18 19 20 26 30 28 29 28 31 32 33 32 34 35 36 37 34 34 33 36 53 69 68 79 80 82 94 98 94 82 75 74 80 78 67 70 76
16 16 15 16 16 18 20 22 23 23 23 25 27 29 32 34 34 33 34 37 50 62 70 84 94 88 93 98 91 79 77 83 86 82 71 70 78 78
14 15 15 15 16 16 17 19 20 22 24 25 25 28 30 32 34 37 41 53 69 78 82 95 90 91 100 99 84 81 90 93 88 76 71 77 79 80
14 15 15 15 16 17 19 21 23 25 28 30 30 32 35 40 41 50 62 77 78 87 98 98 95 100 100 90 86 87 100 93 86 81 81 80 79 76
16 18 18 19 20 21 25 27 31 34 33 32 35 39 44 51 58 73 83 83 86 94 100 100 100 99 92 91 79 99 100 96 92 90 86 80 78 82
22 21 22 22 23 25 28 31 35 36 38 42 42 51 69 77 85 94 90 91 98 100 100 100 100 94 94 78 92 99 92 96 100 95 84 82 87 87
35 32 29 28 30 30 32 35 39 48 55 59 62 70 70 87 87 89 90 100 100 100 100 100 96 99 86 81 94 92 94 98 96 91 88 85 85 86
52 43 41 41 38 40 43 46 49 53 62 70 72 82 86 90 91 92 100 100 100 100 100 100 100 100 88 92 98 96 100 96 96 92 97 88 83 84
66 66 64 62 60 58 64 61 58 62 67 68 76 87 92 96 94 99 100 100 100 98 100 100 100 100 100 100 99 99 100 100 98 91 98 96 89 80
86 81 81 88 87 83 84 86 88 92 92 92 92 92 97 100 100 100 100 100 94 98 100 97 100 100 100 100 98 98 100 100 100 94 91 94 98 86
85 90 90 88 86 94 94 93 94 95 96 99 100 100 100 100 100 100 100 96 97 97 99 100 100 100 100 100 100 99 99 98 99 92 84 94 94 85
89 88 91 100 99 99 99 99 100 100 100 100 100 100 100 100 100 100 96 92 92 99 100 100 100 100 100 100 100 100 88 92 100 94 91 100 97 90
84 87 90 91 97 100 99 98 99 100 98 98 99 99 98 100 100 96 92 88 97 100 96 95 100 100 100 100 100 96 87 92 98 91 94 100 100 98

GFSNE_250_rhum_105.txt.gz
RH
100 100 100 100 100 100 100 100 100 100 100 100 100 100 100 100 100 100 100 100 99 81 94 97 82 85 46 42 43 41 40 39 42 47 40 51 62 52
86 94 79 78 70 68 70 71 89 84 92 100 100 100 100 99 98 100 96 80 99 92 80 59 70 47 45 43 40 44 43 42 51 47 49 61 62 55
50 49 45 39 31 27 27 27 29 29 36 40 52 58 64 64 82 82 94 95 83 70 60 54 46 45 44 42 41 44 42 44 51 48 54 65 68 56
51 47 40 37 34 32 32 31 32 30 30 31 33 35 38 39 43 48 53 75 72 55 43 45 46 44 42 40 39 42 46 57 56 62 72 73 68 67
41 40 40 40 38 37 34 30 26 28 28 31 33 37 41 43 47 45 43 46 43 46 44 46 45 43 42 43 43 48 55 64 62 67 71 77 78 72
32 32 32 31 30 31 32 30 31 30 30 28 28 31 33 35 42 38 40 40 42 44 45 40 41 42 44 45 46 54 59 72 66 76 79 83 80 73
28 27 27 27 28 28 28 28 29 30 31 30 30 31 32 34 34 38 40 40 39 44 44 45 38 45 47 44 49 58 66 72 73 85 88 85 80 73
25 24 25 26 26 26 27 27 27 26 26 26 27 29 32 34 34 35 35 36 40 39 42 42 46 43 44 43 53 60 82 76 80 82 85 79 73 71
25 25 24 24 24 23 22 23 24 24 26 27 28 31 32 32 32 35 36 39 41 49 43 43 42 42 42 50 66 84 84 81 80 84 82 77 74 74
25 25 24 24 24 23 23 23 23 23 25 28 29 31 33 34 36 35 37 38 39 40 42 45 41 41 50 62 76 83 84 85 91 85 84 76 76 87
18 17 16 15 15 14 14 14 15 16 17 18 20 21 25 24 25 25 27 32 34 37 41 43 43 51 61 77 90 87 88 94 88 88 81 77 88 90
17 16 15 15 15 14 14 14 14 15 16 17 16 18 20 22 25 26 27 31 36 40 45 46 50 61 79 83 93 100 97 94 95 90 80 81 95 92
15 15 14 14 14 13 13 13 13 13 13 15 16 17 20 25 28 30 32 36 44 50 51 54 71 76 89 96 96 100 96 100 98 88 80 89 90 90
20 19 17 16 16 15 16 17 16 16 16 18 20 25 30 34 37 41 47 48 51 57 61 76 86 87 91 90 93 97 100 99 94 82 84 90 93 100
28 27 24 22 20 19 19 18 18 22 24 26 30 34 44 50 54 53 54 64 72 75 83 95 95 90 91 93 90 99 100 99 84 82 86 98 100 99
33 34 32 28 24 23 23 24 25 26 27 31 38 43 51 60 64 67 80 81 84 89 96 97 94 90 96 97 98 100 100 100 90 87 95 100 97 94
36 42 41 45 41 46 45 43 39 36 35 37 42 48 55 67 83 89 90 92 95 99 99 98 96 98 96 96 99 100 100 100 100 99 100 100 93 92
43 47 54 60 62 72 70 59 52 52 51 51 54 62 70 81 90 93 96 95 97 99 99 98 100 100 99 100 98 100 100 98 98 99 100 98 90 90
55 61 67 77 86 86 86 80 76 80 82 79 80 81 84 89 89 88 96 96 98 100 100 100 100 100 100 96 92 94 100 99 99 98 98 93 88 81
56 64 73 79 89 94 94 88 90 93 90 92 94 95 97 99 100 100 100 100 100 100 100 100 100 100 100 100 94 97 100 100 100 100 100 93 85 83
51 55 66 76 82 89 98 99 100 99 99 99 100 100 100 100 100 100 99 99 100 100 100 100 100 100 100 100 96 93 100 100 100 100 92 88 89 86
63 59 61 66 78 82 83 94 100 100 100 100 100 100 100 100 100 99 100 100 100 100 100 100 100 100 100 100 100 100 97 97 98 98 95 95 96 93
76 72 76 77 75 80 86 82 80 88 99 100 100 100 100 100 100 100 100 100 100 100 100 100 100 100 100 100 100 99 97 92 96 100 95 100 99 100

GFSNE_250_rhum_108.txt.gz
RH
99 98 99 98 99 100 92 83 81 69 68 90 70 72 80 80 76 98 74 82 72 86 84 76 76 93 67 63 67 52 52 45 42 41 42 44 51 51
84 81 70 56 69 77 65 64 58 56 53 56 58 58 47 47 42 36 41 42 43 46 59 71 68 66 74 73 75 51 46 45 43 44 46 45 58 60
76 79 69 69 64 52 47 44 45 43 37 35 31 36 39 39 38 36 39 40 41 49 51 53 56 47 51 52 48 41 44 42 43 48 46 50 66 66
79 68 66 62 56 50 48 54 54 41 36 40 42 42 42 39 36 32 31 35 37 34 36 37 36 55 49 49 41 41 39 48 46 45 48 56 70 73
56 69 78 63 56 46 40 40 40 37 33 36 33 31 36 31 30 32 33 37 36 35 35 38 40 48 46 44 42 41 46 50 46 51 54 55 75 68
44 47 46 42 39 37 34 33 32 30 28 27 28 29 29 30 31 31 33 33 34 35 37 38 38 40 41 43 45 44 51 52 51 48 55 66 82 72
43 41 39 36 34 31 30 28 27 27 26 26 25 25 26 27 28 30 31 31 34 35 36 36 38 40 44 47 45 50 52 52 50 53 60 77 75 73
38 34 31 28 27 29 28 26 26 24 23 23 24 25 27 29 29 31 31 32 34 34 37 37 39 44 42 50 44 48 52 52 53 64 73 88 82 81
35 30 26 25 26 24 22 21 22 23 23 24 24 25 27 27 27 27 30 34 35 36 38 37 36 37 44 43 42 48 52 56 69 70 90 88 87 90
26 23 21 18 18 18 17 15 15 15 15 15 16 17 18 18 18 18 20 22 25 26 27 29 31 32 35 42 46 53 58 71 75 84 94 94 91 91
24 21 19 17 17 16 15 15 14 14 14 14 14 14 15 16 17 17 18 20 21 23 26 29 32 32 39 46 54 58 63 74 86 92 98 94 91 91
24 22 19 17 16 15 15 15 15 14 14 13 13 13 14 14 15 15 19 19 22 23 29 31 36 41 47 56 62 65 76 90 93 100 94 91 97 96
23 22 20 19 19 18 17 17 17 16 17 16 15 15 16 17 17 18 22 24 30 35 37 42 52 55 59 66 72 79 90 96 100 100 96 96 97 90
29 29 27 25 25 28 28 28 26 24 25 23 22 23 26 27 27 29 32 35 46 53 59 65 65 67 70 75 89 95 99 100 100 100 97 98 100 90
37 36 34 34 36 35 36 34 31 29 25 22 24 25 27 29 32 36 41 48 57 63 72 74 75 84 88 95 99 100 100 100 100 100 100 100 100 99
44 37 35 38 35 37 40 40 36 38 37 39 41 42 39 38 38 43 52 58 66 79 86 83 89 94 98 100 100 100 100 100 100 100 100 96 99 100
40 33 35 32 32 36 48 48 52 56 57 61 58 54 54 52 50 58 63 66 75 88 92 96 100 100 100 100 100 100 100 100 100 96 94 97 100 100
37 34 36 35 40 40 46 56 67 76 79 79 79 72 70 72 68 69 80 83 83 94 99 100 100 100 100 100 100 100 100 100 100 100 100 98 98 100
43 42 43 44 44 46 54 64 83 82 86 91 88 85 83 85 89 90 94 95 93 95 100 100 100 100 100 100 98 99 99 100 100 100 100 100 100 100
42 40 41 43 44 47 52 61 78 86 86 94 98 96 96 91 95 99 100 100 100 100 100 100 100 100 99 94 98 92 100 100 100 100 99 98 100 98
48 52 55 58 52 50 52 56 70 86 92 96 97 100 100 100 99 100 100 97 99 100 100 100 100 100 96 92 84 88 99 100 100 100 100 97 91 88
74 78 81 86 90 83 69 65 65 73 86 94 100 99 100 100 99 96 99 99 97 100 100 100 100 100 100 97 95 97 93 100 100 100 94 97 96 100
88 86 80 80 83 92 92 82 76 77 78 84 90 100 100 100 100 100 100 100 100 100 100 96 99 100 100 100 100 100 100 99 91 93 99 97 98 95

GFSNE_250_rhum_111.txt.gz
RH
92 73 77 89 95 85 82 81 77 75 93 91 96 91 71 74 77 55 49 45 51 44 52 63 56 54 51 47 46 41 38 39 42 44 45 40 45 49
100 100 100 100 100 100 92 84 88 69 76 99 100 91 67 73 81 60 53 50 50 43 43 44 46 50 49 42 43 40 38 38 43 48 44 47 47 48
100 100 100 92 100 100 92 85 68 60 56 55 57 62 57 57 63 56 45 42 47 52 43 33 40 42 44 42 40 38 41 40 43 42 46 48 50 48
100 100 98 89 83 69 62 58 56 48 41 42 42 46 46 47 43 41 40 39 38 37 37 35 36 41 42 40 38 39 42 44 41 44 45 56 55 58
100 97 85 82 73 64 55 50 49 40 36 37 35 36 36 36 32 31 31 33 36 37 37 36 37 37 40 39 38 39 40 44 46 49 53 57 58 58
93 93 65 53 47 40 44 40 38 38 34 30 30 31 31 29 28 28 31 33 33 34 34 34 38 39 39 39 40 42 44 46 47 52 46 58 58 56
78 67 60 47 46 49 43 42 37 33 32 33 30 24 22 22 24 26 28 29 31 33 35 38 41 42 44 45 44 48 49 42 47 51 53 60 63 62
71 56 56 56 53 51 44 36 31 31 28 21 19 17 15 15 16 17 18 22 26 28 29 29 32 34 36 36 37 45 41 41 48 47 63 64 68 72
63 68 51 57 40 37 32 34 29 22 18 16 14 14 14 15 16 16 17 18 19 20 21 23 23 24 30 33 35 42 42 47 52 58 62 69 69 80
56 50 42 35 33 35 32 25 21 17 15 13 12 12 13 12 12 13 14 16 16 17 18 19 21 22 26 33 39 40 46 53 56 61 66 72 77 95
39 35 35 34 33 29 24 20 17 16 14 14 13 14 14 14 14 14 14 13 14 15 17 18 21 25 29 34 38 42 46 59 67 65 76 78 92 100
38 37 35 32 28 23 22 20 19 17 16 17 19 20 21 21 19 21 19 17 16 18 23 23 28 32 37 42 50 60 62 71 79 79 78 90 100 100
40 35 30 30 25 26 22 24 23 22 23 25 27 29 30 29 25 25 24 24 25 29 31 33 35 40 46 53 67 77 78 85 85 85 93 100 100 100
37 30 29 31 31 28 30 30 29 30 30 31 30 33 35 34 34 29 26 26 29 35 38 42 49 58 69 74 83 95 94 92 91 97 100 100 100 100
33 32 36 38 35 34 39 40 36 31 32 33 33 36 38 37 34 35 37 38 39 45 52 56 65 76 83 90 97 98 98 98 100 100 100 100 100 100
44 43 46 45 41 40 46 41 32 29 34 35 38 42 47 51 48 41 38 48 56 58 61 73 81 88 94 98 96 100 100 100 100 100 97 100 100 100
57 53 55 47 45 54 45 33 34 37 39 44 46 56 64 67 61 58 54 51 61 67 68 79 85 88 100 100 100 100 100 100 100 99 100 99 100 100
57 60 54 54 57 46 34 34 43 44 46 51 55 70 77 71 71 69 73 69 72 81 84 88 93 97 100 100 100 100 100 100 100 100 99 98 100 100
65 57 56 61 48 36 38 44 44 46 49 56 58 76 81 83 80 76 80 78 85 90 91 96 100 100 100 100 100 100 100 100 100 100 100 100 99 99
65 66 66 60 46 44 44 44 45 48 49 52 61 71 85 88 88 88 89 90 86 86 94 100 100 100 100 99 99 100 100 100 100 100 100 100 94 89
75 69 62 53 51 51 50 50 62 72 69 59 59 65 83 91 91 93 93 96 98 97 89 88 100 100 98 100 100 100 100 100 100 100 100 100 100 96
60 55 53 56 60 57 57 70 79 88 93 96 95 82 76 84 90 89 95 98 100 98 95 94 98 100 97 100 97 97 100 95 90 96 100 100 100 98
52 55 58 62 64 66 74 87 90 89 90 90 93 100 97 88 90 93 95 98 98 99 97 94 95 100 92 92 94 92 92 89 92 96 91 90 96 92

GFSNE_250_rhum_114.txt.gz
RH
85 83 85 79 100 100 100 79 100 97 100 100 92 100 100 97 99 92 71 46 46 44 41 42 49 50 58 54 46 44 45 50 52 56 50 42 41 42
100 100 100 100 100 100 100 95 100 84 100 100 99 92 92 73 77 51 38 38 34 37 40 40 44 44 46 44 41 38 44 46 47 47 42 41 40 44
100 100 100 100 100 100 100 100 100 100 100 98 100 100 75 51 44 34 36 34 30 33 30 32 36 39 39 40 40 41 42 49 48 47 45 42 43 45
93 79 100 100 100 100 98 84 100 95 89 88 83 51 46 39 28 27 29 28 27 29 29 29 31 34 38 40 40 44 48 51 51 45 50 52 48 57
88 93 97 100 99 100 100 94 89 91 80 73 54 40 39 33 29 30 29 25 25 22 20 21 23 31 38 40 47 48 49 50 55 54 53 61 55 62
100 100 100 100 100 99 99 97 98 81 74 67 40 42 34 33 34 29 26 20 17 16 17 17 19 23 27 34 37 42 50 54 58 55 57 64 60 62
100 100 100 100 100 100 100 100 83 87 70 58 50 38 40 31 30 26 18 15 14 13 14 16 16 19 21 22 25 34 44 46 53 52 66 74 66 71
91 100 100 100 100 100 100 100 70 81 64 56 46 42 33 29 25 17 13 11 11 11 13 15 16 17 20 22 24 24 32 34 47 54 65 60 79 70
100 100 100 100 100 98 98 85 77 66 58 47 47 35 31 26 18 13 11 11 12 13 15 15 15 16 18 20 23 26 34 40 46 50 64 70 68 84
100 100 100 100 100 100 87 81 73 56 51 42 36 33 28 18 14 12 12 14 16 18 19 20 18 19 20 22 25 30 34 40 50 52 55 63 71 81
100 100 100 100 100 83 75 63 59 44 36 33 32 28 19 16 14 16 19 20 19 20 21 23 23 25 25 28 31 36 38 46 51 56 64 76 84 98
100 100 100 96 83 67 57 53 41 30 31 34 28 22 17 17 18 23 23 23 23 20 20 21 24 28 31 35 39 41 47 51 59 66 78 89 97 100
99 98 95 70 59 57 47 35 31 34 32 28 24 23 20 22 26 26 26 25 23 20 22 24 26 31 39 45 50 52 57 66 70 78 93 100 100 100
88 71 63 49 42 31 30 30 34 31 27 23 24 25 27 31 28 25 29 27 27 29 34 36 36 35 45 55 66 69 80 89 92 98 100 100 100 100
62 55 38 30 25 27 30 35 30 27 25 24 26 33 36 33 27 29 32 31 34 41 47 46 51 52 53 68 83 86 93 95 100 100 100 100 100 100
37 27 22 25 28 30 30 28 29 25 27 25 38 40 36 30 34 37 41 43 46 52 55 54 58 64 68 77 91 97 98 100 100 100 100 100 100 100
25 25 29 29 29 28 30 30 30 32 27 38 46 33 31 38 39 44 48 51 56 55 59 59 57 66 76 88 96 99 100 100 100 100 100 100 100 100
28 30 30 28 28 31 30 34 36 38 40 51 40 34 38 40 41 47 52 62 68 66 64 69 70 69 82 96 100 100 100 100 100 100 100 100 100 100
27 26 26 29 31 38 39 42 47 55 55 49 39 43 40 40 43 48 65 68 73 74 74 80 77 87 89 97 98 100 100 100 100 100 100 100 100 100
25 29 35 37 43 52 56 61 63 64 59 50 46 50 47 49 53 54 58 73 85 83 84 81 88 96 100 94 92 97 99 100 98 98 94 94 98 100
39 44 50 56 59 68 68 71 73 63 58 49 52 54 58 72 87 92 83 74 82 90 88 85 93 99 92 95 97 96 100 100 100 98 98 100 95 86
62 63 71 82 82 76 75 69 65 53 52 58 62 60 66 85 93 96 97 100 91 88 93 93 96 99 91 97 99 97 94 92 96 99 100 97 95 92
86 84 84 79 72 78 78 68 56 53 58 64 69 70 70 94 97 93 93 95 100 100 94 94 98 100 98 94 94 99 100 100 99 100 99 96 100 100

GFSNE_250_rhum_117.txt.gz
RH
96 91 100 94 79 58 83 89 96 96 99 100 100 100 100 99 100 89 76 81 64 48 51 45 41 28 26 26 28 32 37 41 50 52 50 50 49 56
100 100 98 83 80 100 100 100 100 100 100 100 100 94 92 74 69 67 63 66 59 44 40 40 30 27 24 22 21 24 28 32 44 49 55 55 54 57
92 100 89 98 99 100 100 100 100 100 100 87 100 98 98 87 59 79 50 44 44 51 34 33 30 26 21 17 16 18 19 25 33 44 55 60 58 57
71 82 100 100 100 100 100 100 100 82 100 100 98 86 74 63 65 66 52 40 56 37 35 33 26 24 16 14 13 15 19 21 27 38 50 62 64 67
100 100 100 100 100 100 100 92 100 100 97 90 79 86 67 72 68 68 54 55 55 36 38 28 24 19 13 12 13 14 18 21 25 31 40 60 79 76
100 100 100 100 96 87 89 97 98 96 93 82 96 88 70 87 82 72 58 62 58 43 41 27 20 14 12 12 14 16 18 21 25 34 40 54 80 82
100 100 100 100 100 100 99 100 87 78 98 96 99 95 96 89 73 71 64 71 46 42 38 24 15 11 12 14 17 18 19 22 25 30 40 63 68 93
100 100 100 100 100 100 97 99 100 100 100 93 99 98 85 74 78 60 60 55 57 36 27 18 12 12 17 18 20 24 22 21 24 26 41 61 76 100
100 100 100 100 100 100 100 100 100 100 98 100 87 93 85 81 71 62 62 57 40 32 22 14 12 18 16 19 20 25 29 26 27 29 37 68 70 86
100 100 100 100 100 100 100 100 97 97 93 90 90 88 86 82 80 72 63 47 32 24 15 12 18 17 18 18 21 26 28 31 32 36 46 65 81 79
100 100 100 100 100 100 100 100 88 100 96 100 92 97 87 83 67 59 53 38 26 18 13 18 18 18 19 19 21 26 33 38 42 44 51 62 70 80
100 100 100 100 100 100 100 100 98 94 100 100 98 86 77 71 70 55 35 26 20 14 18 22 17 21 19 23 25 27 34 41 49 55 53 57 70 80
96 100 100 100 100 100 100 100 98 92 97 94 90 73 69 59 49 37 23 22 16 16 24 19 20 24 25 32 32 31 37 43 51 58 63 74 85 95
100 100 100 100 100 100 100 100 95 100 86 75 73 62 53 46 37 24 21 17 18 26 21 24 24 32 35 40 39 43 46 48 65 81 84 87 94 99
100 100 100 100 100 100 100 100 100 95 71 64 61 54 41 27 24 21 19 18 26 26 25 29 32 38 44 47 47 54 57 61 84 90 94 96 100 100
100 100 98 100 100 99 94 84 71 68 63 58 41 35 21 23 21 19 19 27 31 26 32 34 35 43 50 56 55 62 67 72 76 92 96 100 100 100
100 92 85 84 82 65 60 56 57 59 50 30 22 25 24 22 20 21 30 36 27 32 35 36 39 44 52 59 65 69 77 79 84 86 100 100 100 100
75 70 69 73 60 54 58 53 46 30 23 21 23 24 24 21 25 31 40 33 31 36 38 39 45 54 58 62 72 85 84 87 95 99 97 97 100 100
66 65 58 46 38 29 25 23 23 23 23 23 26 29 27 31 33 42 43 32 37 43 52 51 53 68 78 78 74 79 96 96 91 88 97 100 100 99
46 40 37 32 27 24 24 24 27 26 26 29 33 37 35 43 46 46 37 39 44 52 72 81 73 84 84 80 78 84 94 100 99 97 94 99 98 99
41 39 35 30 30 31 32 34 36 40 42 46 49 46 54 53 50 41 37 46 54 63 81 92 99 100 93 88 83 90 100 97 96 97 97 96 98 99
46 45 41 40 45 48 51 54 55 58 59 60 64 60 61 61 50 43 49 54 58 66 86 95 98 100 97 95 92 89 98 100 100 100 100 100 98 97
50 53 54 54 54 59 64 68 74 79 78 75 70 66 66 63 54 54 61 61 61 65 81 96 99 99 100 97 96 96 93 98 100 100 100 98 100 99

GFSNE_250_rhum_120.txt.gz
RH
100 100 100 90 93 62 65 59 53 75 88 94 78 66 46 84 100 100 92 72 81 68 49 47 60 67 61 55 35 28 25 20 15 13 14 20 24 46
100 100 100 92 77 70 70 82 82 100 95 87 73 57 100 100 93 99 66 74 59 52 68 78 45 51 61 58 37 32 23 18 13 12 12 15 22 35
100 100 96 93 66 80 93 100 98 91 84 83 97 100 100 100 98 82 83 75 82 66 69 74 48 52 59 55 42 26 23 16 12 12 13 14 19 27
100 93 82 74 72 96 100 100 82 97 100 100 100 100 100 100 76 93 86 86 100 72 78 80 44 62 54 39 40 22 19 13 11 14 15 16 19 28
93 94 99 86 86 78 99 100 100 100 100 100 100 96 84 81 94 100 100 100 94 84 60 62 58 64 54 40 30 24 18 12 16 19 20 19 22 29
100 100 100 100 100 97 100 100 100 100 100 100 96 81 95 100 95 100 100 92 84 94 71 64 66 66 41 41 34 20 15 16 17 18 24 22 23 34
100 100 100 100 100 100 99 100 95 100 99 98 97 100 100 100 100 100 85 74 95 70 71 89 63 52 40 32 22 18 14 17 16 18 24 28 26 31
100 99 97 100 100 99 100 100 100 100 100 100 100 100 100 100 100 83 99 100 73 63 64 91 58 49 43 34 18 14 16 16 16 18 24 31 29 36
100 100 100 100 100 100 100 100 100 100 100 100 100 100 100 99 100 98 100 69 48 64 75 72 52 45 40 35 17 15 17 15 15 17 25 33 32 39
100 100 100 100 100 100 100 100 100 100 100 94 84 89 100 94 98 96 75 84 76 79 72 52 45 44 40 22 16 19 16 15 16 19 26 35 40 43
100 100 100 100 100 100 100 100 100 100 100 100 96 100 100 100 97 95 99 83 73 76 67 52 42 40 26 18 17 21 18 17 20 21 25 36 44 49
100 100 100 100 100 100 100 100 97 97 99 100 100 92 99 97 100 90 95 98 65 70 52 47 40 26 19 17 23 20 22 21 25 26 28 36 46 53
100 100 100 100 100 100 100 100 100 100 100 96 100 100 98 100 99 99 92 76 63 63 44 42 24 19 18 21 24 23 24 25 29 30 34 44 53 64
100 100 100 100 100 100 100 100 100 100 100 100 98 100 100 100 99 84 86 61 55 43 35 24 19 19 20 27 26 27 27 30 30 37 45 50 68 76
100 100 100 100 100 100 100 100 100 100 100 100 100 100 100 83 82 81 63 59 44 34 27 18 19 20 30 28 30 30 32 34 37 44 63 62 69 82
100 100 100 100 100 100 100 100 100 100 100 98 100 93 96 76 72 71 65 48 31 24 18 19 20 29 34 29 31 34 36 40 45 47 68 73 72 88
100 100 100 100 100 100 100 100 100 100 100 100 100 85 73 69 67 60 47 38 24 20 20 22 28 35 34 33 35 37 44 49 54 54 68 79 88 94
100 100 100 100 100 100 100 100 100 100 100 99 78 67 61 56 48 41 28 23 24 22 24 29 37 38 39 42 45 46 47 56 61 69 79 83 92 97
90 93 94 98 100 100 94 100 100 95 91 76 60 58 54 45 36 29 27 26 30 31 32 42 42 39 46 44 58 58 57 64 71 76 84 89 90 93
68 69 74 82 85 81 86 82 78 70 62 58 50 43 39 34 36 36 36 41 43 49 53 47 49 46 48 51 70 82 84 78 78 83 86 88 100 100
49 48 49 52 50 57 74 71 62 57 57 49 48 47 40 47 49 52 53 56 63 63 61 59 53 55 58 60 74 90 97 99 92 87 89 97 97 96
33 35 34 28 28 36 44 46 48 51 56 64 61 56 62 70 74 75 72 70 67 68 70 71 66 65 68 66 76 90 95 97 100 99 98 96 91 96
32 34 37 41 45 48 46 46 54 62 72 71 64 66 76 82 89 88 86 82 85 80 80 81 76 72 70 72 75 86 97 99 97 100 100 99 97 92

GFSNE_250_rhum_123.txt.gz
RH
100 100 100 97 97 82 90 76 54 41 38 42 67 100 98 100 100 87 75 80 81 79 66 57 68 94 100 87 78 81 46 38 45 37 24 14 11 12
100 100 100 100 69 63 62 66 43 54 67 69 76 92 100 95 74 66 66 86 78 91 73 74 100 100 86 94 67 75 36 40 38 35 26 14 12 14
100 100 100 99 99 98 78 60 76 94 97 97 100 100 89 63 72 92 79 100 97 100 100 100 97 99 81 55 72 58 38 44 33 30 21 12 13 16
100 100 100 100 94 79 92 100 100 100 100 100 88 97 84 53 78 66 100 100 100 94 100 98 82 78 69 68 61 53 66 53 31 26 14 13 15 16
100 100 100 100 100 100 100 100 100 100 100 90 84 64 67 84 98 94 98 86 87 98 95 97 73 67 69 64 69 59 53 54 42 24 14 13 16 15
99 100 100 100 100 100 100 100 100 100 84 92 79 81 98 100 100 100 100 100 100 97 99 85 79 76 65 73 62 65 52 44 39 25 14 14 16 16
100 96 100 100 100 100 98 89 93 99 100 98 100 100 100 92 96 99 100 100 100 76 93 72 59 74 73 68 65 65 53 40 32 19 15 15 16 16
100 100 100 100 65 60 78 100 96 100 100 100 100 100 89 100 100 100 100 100 98 70 76 95 97 84 73 93 66 60 51 36 27 15 15 16 16 16
100 99 99 94 78 89 100 100 100 100 100 100 100 100 100 100 100 100 100 100 88 99 96 92 98 82 90 89 76 62 52 35 32 15 16 17 17 17
100 99 100 100 94 100 100 100 100 100 100 100 100 100 100 100 100 100 100 100 100 96 79 96 99 95 97 84 75 52 41 32 19 15 18 19 19 19
100 100 100 100 100 100 100 100 100 100 100 100 100 100 100 100 100 100 100 100 100 100 99 100 93 95 84 80 54 50 43 18 16 18 21 21 22 23
97 100 100 97 84 94 100 100 100 100 100 100 100 99 100 100 100 99 98 100 100 91 98 99 76 100 90 64 60 44 28 16 17 24 22 23 24 26
100 99 99 100 100 100 100 100 100 100 100 100 100 100 100 100 100 100 100 93 87 91 94 77 90 78 74 61 47 30 20 18 22 27 26 26 26 29
100 100 100 100 100 100 100 100 100 100 100 100 100 100 100 91 99 100 100 95 100 100 82 75 75 86 73 56 30 22 21 24 30 28 28 30 31 33
100 100 100 100 100 100 100 100 100 100 100 79 99 100 100 97 98 100 100 98 92 95 81 69 62 64 49 34 26 23 28 34 37 29 30 33 36 37
99 100 100 100 100 100 100 100 100 100 97 100 100 100 99 80 98 100 100 98 91 88 77 72 66 53 38 31 30 32 38 47 39 33 34 35 45 47
100 96 100 100 100 100 98 100 100 94 99 100 100 100 98 100 94 100 94 82 78 76 76 62 49 42 38 37 38 48 54 49 41 37 41 43 51 60
99 100 79 98 100 100 100 100 100 100 100 100 100 100 100 100 100 79 76 67 62 59 56 52 50 52 48 49 53 60 58 55 47 46 52 57 60 66
100 100 100 100 100 100 100 100 100 100 100 100 100 98 89 74 85 71 69 61 58 60 63 62 66 68 55 53 69 68 64 57 60 62 69 69 63 63
76 76 76 96 95 84 78 80 74 100 99 99 100 84 60 64 82 75 68 68 75 78 80 89 90 81 77 80 76 72 69 64 68 82 88 89 84 69
20 21 24 32 40 50 51 53 40 46 54 55 41 62 71 82 71 72 76 91 89 92 97 99 97 98 97 94 91 88 76 69 71 83 92 99 100 92
15 15 16 15 15 15 15 14 13 14 17 23 39 55 60 65 78 90 95 97 98 100 100 100 100 100 100 99 100 99 92 80 80 81 93 100 100 100
8 10 11 11 12 12 13 14 14 18 27 36 47 63 74 81 81 87 96 99 100 100 100 100 100 100 100 100 97 98 100 99 93 93 87 96 100 100